GFSWCAN_prec_precacc24_096.txt.gz
Total_Precipitation_Accumulation
0.62 0.54 0.22 0.15 0.07 0.04 0.11 0.09 0.06 0.05 0.03 0.04 0.02 0.01 0.01 0.04 0.04 0.02 0.04 0.00 0.01 0.01 0.00 0.00 0.00 0.00 0.00 0.01 0.02 0.03 0.03 0.06 0.03 0.18 0.31 0.46 0.57 0.26 0.52 0.87 0.31 0.34 0.24 0.23 0.33 0.60 0.56 0.09 0.21 0.42 0.50 0.28 0.13 0.14
0.63 0.59 0.17 0.15 0.07 0.06 0.10 0.09 0.08 0.05 0.04 0.05 0.03 0.01 0.00 0.02 0.04 0.04 0.07 0.00 0.01 0.01 0.01 0.00 0.00 0.00 0.00 0.00 0.00 0.00 0.02 0.03 0.07 0.15 0.12 0.15 0.25 0.31 0.46 0.62 0.51 0.85 0.79 0.93 0.64 0.62 0.39 0.18 0.26 0.32 0.28 0.17 0.13 0.07
0.61 0.49 0.20 0.12 0.09 0.05 0.07 0.08 0.07 0.05 0.05 0.04 0.03 0.00 0.02 0.03 0.05 0.06 0.08 0.02 0.05 0.10 0.02 0.00 0.00 0.00 0.00 0.00 0.00 0.00 0.04 0.04 0.10 0.16 0.18 0.13 0.17 0.15 0.25 0.57 0.46 0.29 0.20 0.41 0.46 0.41 0.22 0.24 0.17 0.15 0.14 0.11 0.09 0.05
0.42 0.35 0.25 0.12 0.08 0.04 0.04 0.04 0.05 0.05 0.05 0.04 0.03 0.00 0.00 0.02 0.09 0.12 0.08 0.06 0.03 0.07 0.01 0.01 0.00 0.00 0.00 0.00 0.00 0.00 0.02 0.01 0.02 0.04 0.10 0.11 0.08 0.12 0.11 0.36 0.17 0.04 0.06 0.21 0.42 0.41 0.32 0.22 0.26 0.19 0.17 0.13 0.16 0.19
0.23 0.21 0.30 0.13 0.07 0.03 0.02 0.03 0.03 0.04 0.06 0.05 0.02 0.01 0.01 0.01 0.04 0.16 0.25 0.21 0.03 0.06 0.09 0.02 0.00 0.00 0.00 0.00 0.00 0.00 0.00 0.00 0.01 0.02 0.06 0.05 0.05 0.14 0.12 0.31 0.15 0.08 0.14 0.12 0.27 0.20 0.24 0.31 0.29 0.20 0.16 0.18 0.26 0.14
0.20 0.14 0.27 0.19 0.08 0.02 0.01 0.02 0.03 0.03 0.06 0.07 0.03 0.02 0.02 0.06 0.20 0.61 0.57 0.29 0.14 0.16 0.32 0.10 0.01 0.00 0.00 0.00 0.00 0.00 0.00 0.01 0.00 0.02 0.04 0.03 0.06 0.11 0.06 0.25 0.17 0.19 0.17 0.17 0.20 0.23 0.17 0.20 0.19 0.14 0.11 0.09 0.08 0.06
0.18 0.14 0.19 0.23 0.08 0.02 0.01 0.02 0.04 0.05 0.06 0.08 0.03 0.02 0.04 0.10 0.40 0.71 0.46 0.13 0.14 0.29 0.63 0.26 0.03 0.01 0.00 0.00 0.02 0.05 0.01 0.01 0.01 0.03 0.02 0.02 0.02 0.08 0.16 0.25 0.18 0.23 0.26 0.25 0.27 0.26 0.23 0.21 0.14 0.09 0.03 0.01 0.00 0.00
0.20 0.15 0.12 0.20 0.09 0.03 0.02 0.02 0.04 0.08 0.08 0.10 0.11 0.15 0.13 0.21 0.34 0.36 0.18 0.15 0.26 0.58 0.41 0.16 0.03 0.02 0.01 0.05 0.09 0.08 0.03 0.01 0.04 0.04 0.04 0.04 0.04 0.11 0.20 0.21 0.22 0.21 0.30 0.27 0.27 0.17 0.10 0.06 0.02 0.01 0.00 0.00 0.00 0.00
0.20 0.17 0.10 0.16 0.09 0.03 0.02 0.02 0.05 0.11 0.11 0.22 0.24 0.26 0.25 0.22 0.17 0.09 0.14 0.18 0.20 0.29 0.17 0.05 0.03 0.13 0.04 0.11 0.18 0.15 0.10 0.06 0.04 0.06 0.03 0.04 0.05 0.07 0.08 0.14 0.17 0.17 0.26 0.28 0.18 0.06 0.02 0.02 0.01 0.00 0.00 0.00 0.00 0.00
0.16 0.17 0.09 0.13 0.08 0.04 0.03 0.03 0.10 0.19 0.34 0.42 0.23 0.23 0.25 0.14 0.07 0.07 0.12 0.11 0.13 0.12 0.07 0.03 0.02 0.14 0.07 0.06 0.12 0.16 0.14 0.06 0.08 0.05 0.03 0.04 0.05 0.05 0.03 0.02 0.04 0.05 0.09 0.13 0.13 0.07 0.03 0.02 0.01 0.00 0.00 0.00 0.00 0.00
0.12 0.12 0.09 0.10 0.07 0.04 0.04 0.08 0.27 0.40 0.54 0.24 0.24 0.30 0.20 0.11 0.07 0.11 0.07 0.06 0.04 0.05 0.02 0.00 0.01 0.07 0.07 0.05 0.14 0.07 0.14 0.15 0.12 0.14 0.06 0.09 0.07 0.05 0.04 0.01 0.01 0.02 0.08 0.09 0.07 0.05 0.04 0.01 0.00 0.00 0.00 0.01 0.00 0.00
0.09 0.08 0.12 0.11 0.06 0.05 0.06 0.23 0.43 0.22 0.23 0.12 0.14 0.29 0.26 0.13 0.11 0.09 0.06 0.04 0.04 0.01 0.01 0.01 0.01 0.03 0.08 0.08 0.27 0.21 0.18 0.25 0.33 0.24 0.09 0.11 0.07 0.04 0.03 0.02 0.00 0.00 0.02 0.03 0.04 0.03 0.01 0.00 0.00 0.00 0.01 0.01 0.01 0.02
0.10 0.08 0.17 0.13 0.08 0.07 0.11 0.27 0.38 0.17 0.14 0.22 0.22 0.12 0.14 0.10 0.11 0.03 0.02 0.01 0.01 0.01 0.03 0.06 0.10 0.03 0.08 0.16 0.34 0.31 0.28 0.25 0.29 0.40 0.16 0.05 0.03 0.03 0.01 0.00 0.00 0.00 0.00 0.00 0.01 0.00 0.00 0.01 0.00 0.00 0.01 0.02 0.01 0.01
0.12 0.15 0.24 0.15 0.11 0.13 0.18 0.37 0.47 0.27 0.25 0.20 0.13 0.07 0.09 0.06 0.01 0.01 0.03 0.04 0.04 0.05 0.05 0.22 0.09 0.09 0.08 0.11 0.15 0.21 0.18 0.18 0.25 0.17 0.09 0.03 0.02 0.02 0.01 0.00 0.00 0.01 0.01 0.01 0.01 0.01 0.01 0.01 0.01 0.01 0.01 0.01 0.01 0.01
0.14 0.26 0.32 0.21 0.20 0.23 0.29 0.36 0.38 0.22 0.20 0.24 0.12 0.06 0.02 0.02 0.01 0.02 0.01 0.00 0.00 0.03 0.10 0.23 0.09 0.11 0.07 0.10 0.09 0.13 0.17 0.29 0.32 0.36 0.04 0.04 0.02 0.00 0.00 0.00 0.00 0.01 0.01 0.01 0.01 0.01 0.01 0.01 0.01 0.02 0.02 0.01 0.00 0.00
0.23 0.59 0.41 0.28 0.29 0.29 0.38 0.41 0.32 0.10 0.08 0.19 0.14 0.07 0.03 0.02 0.01 0.02 0.02 0.02 0.01 0.05 0.09 0.11 0.13 0.08 0.09 0.03 0.07 0.08 0.17 0.41 0.09 0.02 0.03 0.02 0.01 0.01 0.00 0.00 0.00 0.01 0.01 0.01 0.01 0.01 0.01 0.01 0.01 0.01 0.00 0.00 0.00 0.00
0.54 0.54 0.31 0.32 0.31 0.36 0.41 0.25 0.14 0.07 0.08 0.06 0.02 0.02 0.03 0.02 0.02 0.01 0.02 0.02 0.02 0.06 0.07 0.06 0.13 0.10 0.14 0.02 0.01 0.01 0.01 0.02 0.02 0.03 0.02 0.01 0.00 0.01 0.00 0.01 0.01 0.01 0.01 0.01 0.01 0.01 0.00 0.00 0.00 0.00 0.00 0.00 0.00 0.00
0.36 0.21 0.25 0.27 0.29 0.37 0.26 0.12 0.15 0.06 0.03 0.02 0.01 0.01 0.01 0.02 0.03 0.03 0.01 0.00 0.02 0.03 0.05 0.11 0.23 0.05 0.03 0.02 0.02 0.00 0.02 0.03 0.02 0.02 0.01 0.01 0.00 0.00 0.00 0.01 0.01 0.01 0.01 0.01 0.00 0.00 0.00 0.00 0.01 0.00 0.00 0.00 0.00 0.00
0.26 0.16 0.10 0.05 0.04 0.13 0.12 0.05 0.10 0.04 0.01 0.01 0.01 0.01 0.00 0.01 0.01 0.01 0.01 0.01 0.00 0.00 0.02 0.01 0.01 0.02 0.02 0.00 0.01 0.01 0.01 0.01 0.03 0.02 0.02 0.01 0.01 0.01 0.01 0.01 0.01 0.01 0.01 0.00 0.00 0.00 0.01 0.01 0.01 0.00 0.00 0.00 0.00 0.01
0.18 0.09 0.03 0.02 0.14 0.15 0.01 0.01 0.01 0.02 0.01 0.01 0.00 0.00 0.00 0.01 0.00 0.00 0.00 0.00 0.00 0.00 0.01 0.01 0.01 0.00 0.00 0.00 0.00 0.00 0.00 0.00 0.00 0.02 0.04 0.04 0.02 0.01 0.01 0.01 0.01 0.01 0.01 0.01 0.01 0.00 0.00 0.00 0.00 0.00 0.00 0.01 0.01 0.02
0.37 0.26 0.10 0.12 0.19 0.06 0.04 0.01 0.00 0.00 0.00 0.01 0.00 0.00 0.00 0.00 0.01 0.01 0.01 0.00 0.03 0.02 0.02 0.01 0.01 0.01 0.00 0.00 0.00 0.00 0.00 0.00 0.00 0.00 0.01 0.03 0.02 0.01 0.02 0.03 0.01 0.01 0.01 0.01 0.01 0.00 0.00 0.00 0.00 0.00 0.00 0.00 0.00 0.00
0.25 0.14 0.12 0.16 0.13 0.02 0.07 0.01 0.00 0.00 0.00 0.00 0.00 0.00 0.01 0.01 0.01 0.01 0.02 0.04 0.03 0.02 0.00 0.00 0.00 0.00 0.00 0.00 0.00 0.00 0.00 0.00 0.00 0.00 0.00 0.00 0.02 0.02 0.02 0.01 0.01 0.01 0.02 0.01 0.01 0.01 0.00 0.00 0.00 0.00 0.00 0.01 0.00 0.00
0.04 0.05 0.03 0.04 0.15 0.05 0.05 0.01 0.00 0.00 0.00 0.01 0.01 0.01 0.01 0.01 0.01 0.00 0.01 0.01 0.02 0.01 0.00 0.00 0.00 0.00 0.00 0.00 0.00 0.00 0.00 0.00 0.00 0.00 0.00 0.00 0.01 0.01 0.01 0.01 0.02 0.01 0.02 0.01 0.00 0.00 0.00 0.00 0.00 0.00 0.00 0.00 0.01 0.01
0.05 0.08 0.08 0.10 0.10 0.06 0.04 0.02 0.00 0.00 0.00 0.00 0.00 0.01 0.01 0.01 0.00 0.00 0.01 0.01 0.02 0.02 0.01 0.01 0.00 0.01 0.01 0.00 0.00 0.00 0.00 0.00 0.00 0.01 0.01 0.00 0.01 0.01 0.00 0.00 0.00 0.00 0.00 0.00 0.00 0.00 0.00 0.00 0.00 0.00 0.00 0.00 0.00 0.00
0.15 0.10 0.11 0.15 0.07 0.01 0.01 0.01 0.00 0.00 0.00 0.00 0.01 0.00 0.01 0.00 0.00 0.00 0.00 0.02 0.02 0.04 0.03 0.01 0.00 0.00 0.00 0.01 0.01 0.01 0.00 0.00 0.00 0.01 0.01 0.00 0.00 0.01 0.01 0.00 0.00 0.00 0.00 0.00 0.00 0.00 0.00 0.00 0.00 0.00 0.00 0.00 0.00 0.00
0.17 0.08 0.02 0.02 0.02 0.00 0.00 0.01 0.01 0.00 0.00 0.01 0.01 0.01 0.00 0.00 0.01 0.00 0.02 0.03 0.02 0.03 0.03 0.03 0.01 0.01 0.02 0.00 0.01 0.01 0.00 0.00 0.00 0.00 0.01 0.00 0.00 0.00 0.00 0.00 0.00 0.01 0.00 0.00 0.00 0.00 0.00 0.00 0.00 0.00 0.00 0.00 0.00 0.00
0.04 0.07 0.02 0.00 0.00 0.00 0.00 0.00 0.00 0.00 0.00 0.00 0.01 0.01 0.01 0.01 0.01 0.02 0.02 0.04 0.04 0.02 0.01 0.02 0.01 0.01 0.01 0.01 0.01 0.01 0.00 0.00 0.00 0.00 0.00 0.00 0.00 0.00 0.00 0.00 0.00 0.01 0.00 0.00 0.00 0.00 0.00 0.00 0.00 0.00 0.00 0.00 0.00 0.01
0.01 0.00 0.01 0.01 0.00 0.00 0.00 0.00 0.00 0.00 0.01 0.00 0.00 0.01 0.00 0.00 0.02 0.03 0.03 0.03 0.10 0.04 0.04 0.06 0.07 0.03 0.00 0.00 0.00 0.00 0.00 0.00 0.00 0.00 0.00 0.01 0.01 0.00 0.00 0.00 0.00 0.00 0.00 0.00 0.00 0.00 0.00 0.00 0.00 0.00 0.00 0.00 0.00 0.01
0.01 0.00 0.00 0.01 0.00 0.00 0.00 0.00 0.01 0.01 0.00 0.01 0.01 0.01 0.01 0.01 0.02 0.03 0.03 0.06 0.06 0.02 0.01 0.03 0.07 0.02 0.02 0.03 0.03 0.01 0.00 0.00 0.00 0.01 0.01 0.01 0.01 0.01 0.00 0.00 0.00 0.00 0.00 0.00 0.00 0.00 0.00 0.00 0.00 0.00 0.00 0.00 0.00 0.01
0.00 0.00 0.00 0.00 0.00 0.00 0.01 0.01 0.03 0.01 0.01 0.00 0.00 0.00 0.00 0.02 0.03 0.03 0.04 0.05 0.07 0.06 0.03 0.01 0.02 0.01 0.02 0.03 0.05 0.06 0.04 0.01 0.00 0.00 0.00 0.00 0.01 0.00 0.00 0.00 0.00 0.00 0.00 0.00 0.00 0.00 0.00 0.00 0.00 0.00 0.00 0.00 0.00 0.00
0.01 0.01 0.00 0.00 0.01 0.03 0.02 0.02 0.01 0.01 0.00 0.00 0.00 0.02 0.02 0.03 0.04 0.04 0.07 0.09 0.11 0.07 0.02 0.04 0.05 0.03 0.02 0.01 0.00 0.00 0.03 0.03 0.02 0.00 0.00 0.00 0.00 0.00 0.00 0.00 0.00 0.00 0.00 0.00 0.00 0.00 0.00 0.00 0.00 0.00 0.00 0.00 0.00 0.00
0.04 0.06 0.03 0.02 0.02 0.02 0.01 0.02 0.02 0.02 0.02 0.02 0.02 0.02 0.01 0.02 0.03 0.03 0.03 0.07 0.09 0.07 0.04 0.02 0.03 0.05 0.03 0.02 0.02 0.01 0.01 0.02 0.02 0.00 0.00 0.00 0.00 0.00 0.00 0.00 0.00 0.00 0.00 0.00 0.00 0.00 0.00 0.00 0.00 0.00 0.00 0.00 0.00 0.00
0.12 0.13 0.09 0.05 0.04 0.03 0.03 0.05 0.05 0.04 0.02 0.02 0.03 0.02 0.01 0.03 0.03 0.03 0.03 0.06 0.12 0.08 0.05 0.04 0.02 0.03 0.04 0.04 0.03 0.03 0.02 0.02 0.01 0.00 0.00 0.00 0.00 0.00 0.00 0.00 0.00 0.00 0.00 0.00 0.00 0.00 0.00 0.00 0.00 0.00 0.00 0.00 0.00 0.00

GFSWCAN_prec_precacc24_099.txt.gz
Total_Precipitation_Accumulation
0.61 0.59 0.49 0.24 0.07 0.05 0.12 0.09 0.04 0.03 0.03 0.04 0.02 0.01 0.01 0.03 0.02 0.02 0.04 0.00 0.01 0.01 0.00 0.00 0.00 0.00 0.00 0.01 0.02 0.03 0.03 0.06 0.02 0.09 0.21 0.37 0.56 0.25 0.51 0.87 0.31 0.34 0.25 0.24 0.33 0.60 0.56 0.09 0.22 0.43 0.54 0.34 0.24 0.31
0.60 0.70 0.38 0.17 0.07 0.06 0.12 0.09 0.06 0.05 0.04 0.05 0.03 0.01 0.00 0.01 0.02 0.02 0.07 0.00 0.01 0.01 0.01 0.00 0.00 0.00 0.00 0.00 0.00 0.00 0.02 0.03 0.04 0.10 0.08 0.12 0.23 0.30 0.45 0.62 0.51 0.86 0.80 0.94 0.65 0.62 0.40 0.20 0.29 0.36 0.32 0.25 0.25 0.22
0.63 0.81 0.31 0.13 0.10 0.06 0.08 0.08 0.06 0.05 0.05 0.04 0.03 0.00 0.01 0.01 0.03 0.03 0.07 0.02 0.03 0.04 0.01 0.00 0.00 0.00 0.00 0.00 0.00 0.00 0.04 0.04 0.07 0.12 0.11 0.08 0.15 0.14 0.25 0.57 0.46 0.29 0.21 0.34 0.27 0.30 0.23 0.28 0.21 0.17 0.18 0.17 0.17 0.12
0.60 0.81 0.31 0.13 0.09 0.04 0.06 0.05 0.04 0.05 0.05 0.04 0.03 0.00 0.00 0.02 0.05 0.06 0.06 0.06 0.02 0.04 0.01 0.01 0.00 0.00 0.00 0.00 0.00 0.00 0.02 0.01 0.02 0.03 0.05 0.05 0.07 0.12 0.11 0.36 0.16 0.03 0.03 0.10 0.25 0.31 0.30 0.23 0.27 0.19 0.18 0.14 0.13 0.15
0.60 0.50 0.33 0.15 0.08 0.02 0.04 0.02 0.02 0.04 0.06 0.04 0.02 0.00 0.00 0.00 0.03 0.10 0.11 0.09 0.03 0.04 0.08 0.02 0.00 0.00 0.00 0.00 0.00 0.00 0.00 0.00 0.01 0.01 0.03 0.04 0.05 0.13 0.11 0.29 0.12 0.03 0.04 0.07 0.22 0.15 0.20 0.27 0.25 0.16 0.14 0.15 0.17 0.09
0.50 0.24 0.30 0.20 0.08 0.02 0.01 0.02 0.03 0.04 0.06 0.07 0.02 0.01 0.01 0.02 0.06 0.17 0.14 0.08 0.03 0.09 0.19 0.06 0.01 0.00 0.00 0.00 0.00 0.00 0.00 0.01 0.00 0.01 0.02 0.03 0.05 0.09 0.05 0.22 0.13 0.04 0.07 0.10 0.13 0.15 0.12 0.15 0.15 0.10 0.07 0.06 0.05 0.03
0.25 0.16 0.19 0.22 0.08 0.02 0.02 0.03 0.04 0.05 0.06 0.08 0.02 0.00 0.01 0.05 0.22 0.30 0.16 0.08 0.05 0.15 0.43 0.21 0.03 0.01 0.00 0.00 0.02 0.05 0.01 0.01 0.01 0.03 0.02 0.02 0.02 0.05 0.10 0.18 0.08 0.10 0.14 0.15 0.17 0.16 0.16 0.15 0.11 0.07 0.02 0.01 0.00 0.00
0.21 0.15 0.11 0.18 0.08 0.03 0.02 0.03 0.05 0.09 0.08 0.08 0.03 0.02 0.05 0.14 0.22 0.23 0.14 0.13 0.19 0.45 0.37 0.16 0.03 0.02 0.01 0.05 0.09 0.08 0.03 0.01 0.03 0.04 0.04 0.04 0.03 0.09 0.13 0.10 0.08 0.14 0.22 0.21 0.22 0.15 0.09 0.05 0.02 0.01 0.00 0.00 0.00 0.00
0.21 0.16 0.09 0.16 0.08 0.03 0.02 0.03 0.07 0.12 0.09 0.09 0.08 0.14 0.18 0.20 0.13 0.06 0.11 0.14 0.18 0.29 0.17 0.05 0.03 0.13 0.04 0.11 0.18 0.14 0.10 0.06 0.04 0.05 0.03 0.03 0.05 0.06 0.06 0.10 0.11 0.15 0.24 0.27 0.18 0.06 0.02 0.01 0.01 0.00 0.00 0.00 0.00 0.00
0.18 0.16 0.09 0.13 0.08 0.04 0.03 0.04 0.10 0.13 0.18 0.20 0.15 0.22 0.23 0.12 0.07 0.06 0.09 0.10 0.13 0.12 0.07 0.03 0.02 0.14 0.06 0.04 0.08 0.14 0.12 0.06 0.08 0.05 0.02 0.03 0.04 0.04 0.02 0.01 0.03 0.05 0.09 0.13 0.12 0.07 0.03 0.02 0.00 0.00 0.00 0.00 0.00 0.00
0.14 0.13 0.09 0.10 0.07 0.05 0.05 0.07 0.12 0.21 0.43 0.18 0.22 0.28 0.17 0.10 0.07 0.11 0.06 0.06 0.04 0.05 0.02 0.00 0.01 0.07 0.06 0.04 0.09 0.07 0.13 0.15 0.12 0.13 0.05 0.07 0.07 0.05 0.04 0.02 0.02 0.02 0.08 0.09 0.07 0.05 0.03 0.01 0.00 0.00 0.00 0.00 0.00 0.00
0.12 0.08 0.11 0.11 0.07 0.05 0.06 0.09 0.11 0.14 0.19 0.12 0.14 0.26 0.23 0.12 0.11 0.09 0.05 0.03 0.03 0.01 0.01 0.01 0.00 0.02 0.08 0.08 0.16 0.14 0.12 0.22 0.31 0.23 0.07 0.12 0.08 0.05 0.03 0.03 0.01 0.01 0.02 0.04 0.04 0.03 0.01 0.00 0.00 0.00 0.00 0.01 0.01 0.01
0.12 0.08 0.16 0.12 0.05 0.05 0.07 0.09 0.19 0.14 0.14 0.22 0.22 0.12 0.14 0.10 0.11 0.03 0.02 0.01 0.01 0.01 0.03 0.03 0.03 0.02 0.06 0.08 0.13 0.21 0.25 0.28 0.31 0.44 0.16 0.05 0.03 0.03 0.02 0.01 0.00 0.00 0.00 0.02 0.03 0.01 0.01 0.01 0.00 0.00 0.01 0.01 0.01 0.01
0.12 0.12 0.20 0.10 0.05 0.06 0.07 0.20 0.37 0.25 0.24 0.20 0.13 0.07 0.09 0.06 0.01 0.01 0.03 0.04 0.04 0.05 0.04 0.13 0.07 0.06 0.07 0.09 0.13 0.20 0.16 0.16 0.24 0.18 0.09 0.02 0.02 0.02 0.01 0.00 0.00 0.01 0.01 0.01 0.01 0.01 0.01 0.01 0.01 0.01 0.01 0.01 0.00 0.00
0.12 0.18 0.21 0.11 0.09 0.11 0.17 0.29 0.34 0.22 0.20 0.24 0.12 0.06 0.02 0.02 0.03 0.03 0.01 0.01 0.00 0.02 0.07 0.16 0.08 0.10 0.07 0.10 0.09 0.13 0.17 0.29 0.33 0.36 0.04 0.03 0.02 0.00 0.00 0.00 0.00 0.01 0.01 0.01 0.01 0.01 0.01 0.01 0.01 0.01 0.01 0.01 0.00 0.00
0.17 0.44 0.23 0.15 0.18 0.19 0.28 0.37 0.32 0.10 0.08 0.19 0.14 0.08 0.04 0.02 0.02 0.01 0.02 0.02 0.01 0.03 0.06 0.10 0.13 0.08 0.09 0.03 0.07 0.08 0.17 0.41 0.09 0.02 0.03 0.02 0.01 0.01 0.00 0.00 0.00 0.01 0.01 0.01 0.01 0.01 0.01 0.01 0.01 0.00 0.00 0.00 0.00 0.00
0.39 0.40 0.21 0.23 0.21 0.29 0.40 0.25 0.14 0.07 0.08 0.06 0.02 0.03 0.04 0.02 0.02 0.01 0.02 0.02 0.01 0.04 0.07 0.06 0.13 0.10 0.14 0.03 0.01 0.01 0.01 0.02 0.02 0.03 0.02 0.01 0.00 0.01 0.00 0.01 0.01 0.01 0.01 0.01 0.01 0.01 0.00 0.00 0.00 0.00 0.00 0.00 0.00 0.00
0.26 0.16 0.20 0.21 0.27 0.37 0.26 0.11 0.10 0.05 0.03 0.02 0.01 0.01 0.00 0.01 0.03 0.02 0.01 0.00 0.01 0.03 0.05 0.11 0.23 0.05 0.03 0.02 0.02 0.00 0.02 0.03 0.02 0.01 0.01 0.01 0.00 0.00 0.00 0.01 0.01 0.01 0.01 0.01 0.00 0.00 0.00 0.00 0.01 0.00 0.00 0.00 0.00 0.00
0.22 0.15 0.09 0.04 0.04 0.13 0.12 0.04 0.08 0.04 0.00 0.00 0.01 0.00 0.00 0.01 0.01 0.01 0.01 0.02 0.00 0.00 0.02 0.01 0.01 0.02 0.02 0.00 0.01 0.01 0.01 0.01 0.02 0.02 0.01 0.01 0.01 0.01 0.01 0.01 0.01 0.01 0.01 0.00 0.00 0.00 0.00 0.00 0.01 0.00 0.00 0.00 0.00 0.01
0.20 0.10 0.04 0.02 0.14 0.15 0.01 0.01 0.01 0.02 0.01 0.01 0.00 0.00 0.00 0.01 0.00 0.00 0.00 0.01 0.00 0.00 0.01 0.01 0.01 0.00 0.00 0.00 0.00 0.00 0.00 0.00 0.00 0.02 0.04 0.04 0.01 0.01 0.01 0.01 0.01 0.01 0.01 0.01 0.01 0.00 0.00 0.00 0.00 0.00 0.00 0.00 0.00 0.01
0.46 0.30 0.10 0.12 0.19 0.06 0.04 0.01 0.00 0.00 0.00 0.01 0.00 0.00 0.00 0.00 0.01 0.01 0.01 0.00 0.03 0.02 0.02 0.01 0.00 0.01 0.00 0.00 0.00 0.00 0.00 0.00 0.00 0.00 0.01 0.03 0.02 0.01 0.01 0.02 0.01 0.01 0.01 0.01 0.01 0.00 0.00 0.00 0.00 0.00 0.00 0.00 0.00 0.00
0.26 0.14 0.12 0.16 0.13 0.02 0.08 0.01 0.00 0.00 0.00 0.00 0.00 0.00 0.01 0.01 0.01 0.01 0.03 0.04 0.03 0.01 0.00 0.00 0.00 0.00 0.00 0.00 0.00 0.00 0.00 0.00 0.00 0.00 0.00 0.00 0.02 0.01 0.02 0.01 0.01 0.01 0.02 0.01 0.01 0.01 0.00 0.00 0.00 0.00 0.00 0.01 0.00 0.00
0.03 0.04 0.02 0.04 0.15 0.05 0.06 0.01 0.00 0.00 0.00 0.00 0.01 0.01 0.01 0.01 0.01 0.00 0.02 0.01 0.02 0.00 0.00 0.00 0.00 0.00 0.00 0.00 0.00 0.00 0.00 0.00 0.00 0.00 0.00 0.00 0.01 0.01 0.01 0.01 0.02 0.01 0.02 0.01 0.00 0.00 0.00 0.00 0.00 0.00 0.00 0.00 0.01 0.01
0.05 0.07 0.06 0.09 0.10 0.05 0.05 0.04 0.00 0.00 0.00 0.00 0.00 0.01 0.01 0.01 0.00 0.00 0.01 0.01 0.01 0.01 0.01 0.00 0.00 0.00 0.01 0.00 0.00 0.00 0.00 0.00 0.00 0.01 0.01 0.00 0.01 0.01 0.00 0.00 0.00 0.00 0.00 0.00 0.00 0.00 0.00 0.00 0.00 0.00 0.00 0.00 0.00 0.00
0.13 0.08 0.10 0.14 0.07 0.01 0.01 0.02 0.01 0.01 0.00 0.00 0.01 0.00 0.01 0.00 0.00 0.00 0.00 0.02 0.02 0.03 0.02 0.01 0.01 0.00 0.01 0.01 0.01 0.01 0.00 0.00 0.00 0.01 0.01 0.00 0.00 0.01 0.01 0.00 0.00 0.00 0.00 0.00 0.00 0.01 0.00 0.00 0.00 0.00 0.00 0.00 0.00 0.00
0.15 0.07 0.01 0.02 0.02 0.00 0.00 0.01 0.01 0.00 0.00 0.01 0.01 0.01 0.00 0.01 0.01 0.00 0.02 0.03 0.02 0.03 0.03 0.02 0.01 0.01 0.03 0.00 0.01 0.01 0.00 0.00 0.00 0.00 0.02 0.00 0.00 0.00 0.00 0.00 0.00 0.01 0.00 0.00 0.00 0.00 0.00 0.00 0.00 0.00 0.00 0.00 0.00 0.00
0.04 0.07 0.02 0.01 0.01 0.00 0.00 0.00 0.00 0.00 0.00 0.00 0.01 0.01 0.01 0.01 0.01 0.01 0.02 0.03 0.04 0.02 0.01 0.02 0.01 0.01 0.01 0.01 0.01 0.01 0.00 0.00 0.00 0.00 0.00 0.00 0.00 0.00 0.00 0.00 0.00 0.01 0.00 0.00 0.00 0.00 0.00 0.00 0.00 0.00 0.00 0.00 0.00 0.01
0.01 0.00 0.01 0.02 0.01 0.01 0.00 0.00 0.00 0.00 0.00 0.00 0.00 0.01 0.00 0.00 0.02 0.02 0.02 0.03 0.10 0.04 0.04 0.06 0.07 0.03 0.00 0.00 0.00 0.01 0.01 0.00 0.00 0.00 0.00 0.01 0.01 0.01 0.00 0.00 0.00 0.00 0.00 0.00 0.00 0.00 0.00 0.00 0.00 0.00 0.00 0.00 0.00 0.00
0.01 0.00 0.00 0.01 0.01 0.00 0.00 0.00 0.01 0.00 0.00 0.00 0.01 0.01 0.00 0.01 0.02 0.02 0.02 0.05 0.06 0.02 0.02 0.03 0.08 0.02 0.03 0.04 0.04 0.02 0.00 0.00 0.00 0.01 0.01 0.01 0.02 0.02 0.00 0.00 0.00 0.00 0.00 0.00 0.00 0.00 0.00 0.00 0.00 0.00 0.00 0.00 0.00 0.01
0.00 0.00 0.00 0.00 0.00 0.00 0.01 0.01 0.02 0.01 0.00 0.00 0.00 0.00 0.00 0.02 0.02 0.02 0.03 0.05 0.07 0.06 0.03 0.01 0.02 0.01 0.02 0.03 0.05 0.06 0.05 0.02 0.00 0.00 0.00 0.01 0.01 0.01 0.01 0.00 0.00 0.00 0.00 0.00 0.00 0.00 0.00 0.00 0.00 0.00 0.00 0.00 0.00 0.00
0.01 0.01 0.00 0.00 0.01 0.03 0.02 0.02 0.01 0.01 0.00 0.00 0.00 0.02 0.02 0.02 0.02 0.03 0.05 0.08 0.10 0.07 0.02 0.04 0.06 0.03 0.02 0.01 0.00 0.00 0.03 0.03 0.02 0.01 0.00 0.00 0.00 0.00 0.00 0.00 0.00 0.00 0.00 0.00 0.00 0.00 0.00 0.00 0.00 0.00 0.00 0.00 0.00 0.00
0.05 0.07 0.04 0.02 0.02 0.02 0.01 0.02 0.02 0.02 0.01 0.02 0.02 0.02 0.01 0.02 0.03 0.03 0.02 0.06 0.09 0.07 0.04 0.02 0.03 0.05 0.03 0.02 0.02 0.02 0.01 0.02 0.02 0.00 0.00 0.00 0.00 0.00 0.00 0.00 0.00 0.00 0.00 0.00 0.00 0.00 0.00 0.00 0.00 0.00 0.00 0.00 0.00 0.00
0.15 0.16 0.12 0.08 0.06 0.04 0.04 0.08 0.09 0.06 0.03 0.02 0.03 0.02 0.01 0.03 0.03 0.03 0.03 0.06 0.12 0.08 0.05 0.04 0.03 0.03 0.04 0.05 0.04 0.04 0.04 0.03 0.02 0.01 0.00 0.00 0.00 0.00 0.00 0.00 0.00 0.00 0.00 0.00 0.00 0.00 0.00 0.00 0.00 0.00 0.00 0.00 0.00 0.00

GFSWCAN_prec_precacc24_102.txt.gz
Total_Precipitation_Accumulation
0.63 0.59 0.52 0.55 0.13 0.06 0.14 0.11 0.05 0.03 0.02 0.04 0.01 0.00 0.00 0.01 0.00 0.01 0.03 0.00 0.01 0.01 0.00 0.00 0.00 0.00 0.00 0.00 0.02 0.03 0.03 0.06 0.02 0.06 0.16 0.15 0.38 0.22 0.47 0.83 0.28 0.31 0.22 0.24 0.33 0.60 0.57 0.09 0.22 0.44 0.55 0.36 0.26 0.35
0.60 0.69 0.51 0.38 0.10 0.06 0.13 0.09 0.05 0.03 0.03 0.04 0.03 0.01 0.00 0.01 0.01 0.02 0.06 0.00 0.01 0.01 0.00 0.00 0.00 0.00 0.00 0.00 0.00 0.00 0.02 0.03 0.03 0.06 0.06 0.08 0.17 0.29 0.44 0.57 0.46 0.83 0.78 0.91 0.65 0.63 0.41 0.20 0.29 0.37 0.33 0.28 0.31 0.29
0.53 0.78 0.49 0.19 0.11 0.08 0.09 0.07 0.04 0.03 0.03 0.03 0.03 0.00 0.00 0.00 0.01 0.01 0.07 0.01 0.02 0.01 0.00 0.00 0.00 0.00 0.00 0.00 0.00 0.00 0.04 0.04 0.06 0.07 0.07 0.04 0.10 0.13 0.22 0.54 0.42 0.27 0.21 0.34 0.26 0.22 0.19 0.28 0.22 0.19 0.20 0.21 0.22 0.17
0.55 0.86 0.37 0.14 0.11 0.07 0.08 0.04 0.03 0.03 0.04 0.04 0.03 0.00 0.00 0.01 0.02 0.01 0.05 0.06 0.02 0.02 0.01 0.01 0.00 0.00 0.00 0.00 0.00 0.00 0.02 0.00 0.00 0.02 0.03 0.03 0.06 0.10 0.10 0.34 0.15 0.03 0.02 0.10 0.13 0.15 0.16 0.19 0.26 0.21 0.20 0.15 0.14 0.15
0.70 0.69 0.34 0.16 0.10 0.04 0.05 0.03 0.02 0.03 0.04 0.04 0.02 0.00 0.00 0.00 0.02 0.05 0.06 0.05 0.02 0.03 0.07 0.02 0.00 0.00 0.00 0.00 0.00 0.00 0.00 0.00 0.01 0.01 0.02 0.03 0.04 0.11 0.09 0.26 0.10 0.02 0.03 0.04 0.11 0.08 0.13 0.25 0.25 0.18 0.17 0.17 0.16 0.08
0.77 0.40 0.30 0.20 0.09 0.04 0.02 0.02 0.02 0.03 0.05 0.07 0.02 0.00 0.00 0.01 0.03 0.10 0.07 0.03 0.01 0.04 0.07 0.02 0.01 0.00 0.00 0.00 0.00 0.00 0.00 0.01 0.00 0.01 0.01 0.02 0.04 0.08 0.03 0.19 0.11 0.01 0.01 0.03 0.08 0.10 0.10 0.15 0.16 0.10 0.07 0.06 0.05 0.03
0.56 0.23 0.19 0.21 0.08 0.02 0.01 0.01 0.04 0.05 0.06 0.08 0.02 0.00 0.00 0.02 0.06 0.07 0.05 0.05 0.02 0.05 0.18 0.09 0.02 0.01 0.00 0.00 0.02 0.05 0.01 0.01 0.01 0.02 0.01 0.01 0.02 0.04 0.08 0.14 0.05 0.01 0.03 0.08 0.10 0.12 0.14 0.14 0.10 0.06 0.01 0.01 0.00 0.00
0.32 0.17 0.11 0.18 0.07 0.02 0.02 0.03 0.06 0.09 0.08 0.08 0.02 0.00 0.02 0.06 0.10 0.09 0.04 0.04 0.10 0.22 0.20 0.11 0.03 0.02 0.00 0.04 0.08 0.08 0.03 0.01 0.02 0.03 0.03 0.03 0.03 0.07 0.10 0.03 0.03 0.04 0.09 0.12 0.14 0.11 0.07 0.03 0.01 0.00 0.00 0.00 0.00 0.00
0.23 0.16 0.08 0.14 0.06 0.02 0.02 0.04 0.08 0.12 0.09 0.06 0.02 0.05 0.08 0.10 0.07 0.03 0.05 0.07 0.14 0.25 0.16 0.04 0.03 0.13 0.04 0.09 0.16 0.13 0.09 0.05 0.03 0.04 0.03 0.03 0.04 0.05 0.03 0.03 0.03 0.07 0.18 0.21 0.16 0.05 0.01 0.01 0.01 0.00 0.00 0.00 0.00 0.00
0.18 0.15 0.07 0.10 0.06 0.03 0.03 0.04 0.12 0.13 0.08 0.05 0.09 0.15 0.15 0.06 0.05 0.04 0.07 0.08 0.12 0.12 0.07 0.03 0.02 0.14 0.05 0.04 0.07 0.12 0.09 0.05 0.07 0.05 0.02 0.02 0.04 0.04 0.01 0.01 0.01 0.03 0.08 0.12 0.12 0.07 0.03 0.02 0.00 0.00 0.00 0.00 0.00 0.00
0.14 0.11 0.08 0.09 0.06 0.04 0.05 0.07 0.12 0.12 0.11 0.10 0.16 0.22 0.15 0.09 0.07 0.11 0.06 0.06 0.04 0.05 0.02 0.00 0.01 0.07 0.06 0.04 0.07 0.06 0.12 0.15 0.12 0.13 0.04 0.06 0.06 0.04 0.03 0.02 0.02 0.02 0.08 0.09 0.07 0.04 0.03 0.01 0.00 0.00 0.00 0.00 0.00 0.00
0.12 0.08 0.11 0.11 0.07 0.05 0.06 0.08 0.06 0.05 0.08 0.09 0.13 0.21 0.19 0.12 0.11 0.09 0.05 0.03 0.03 0.01 0.01 0.01 0.00 0.02 0.08 0.08 0.15 0.12 0.11 0.20 0.30 0.21 0.07 0.14 0.08 0.05 0.04 0.03 0.02 0.01 0.02 0.04 0.04 0.03 0.01 0.00 0.00 0.00 0.00 0.01 0.01 0.01
0.12 0.07 0.16 0.12 0.07 0.05 0.06 0.05 0.03 0.03 0.12 0.20 0.20 0.10 0.13 0.10 0.11 0.03 0.02 0.01 0.01 0.01 0.03 0.02 0.01 0.01 0.06 0.05 0.05 0.11 0.20 0.24 0.31 0.45 0.17 0.07 0.03 0.04 0.03 0.01 0.01 0.00 0.00 0.02 0.03 0.01 0.00 0.00 0.00 0.00 0.01 0.01 0.00 0.01
0.12 0.12 0.19 0.11 0.05 0.05 0.05 0.07 0.12 0.13 0.20 0.18 0.13 0.07 0.09 0.06 0.01 0.01 0.03 0.04 0.04 0.04 0.03 0.03 0.03 0.02 0.04 0.02 0.03 0.12 0.12 0.12 0.23 0.18 0.10 0.02 0.02 0.02 0.01 0.00 0.00 0.01 0.01 0.02 0.02 0.01 0.00 0.00 0.00 0.00 0.00 0.00 0.00 0.00
0.12 0.18 0.20 0.11 0.09 0.08 0.09 0.14 0.25 0.17 0.19 0.24 0.12 0.06 0.02 0.03 0.04 0.04 0.02 0.01 0.00 0.01 0.04 0.05 0.06 0.05 0.05 0.08 0.08 0.12 0.16 0.28 0.32 0.36 0.03 0.03 0.02 0.00 0.00 0.00 0.00 0.00 0.01 0.01 0.01 0.00 0.01 0.01 0.01 0.01 0.00 0.00 0.00 0.00
0.16 0.38 0.20 0.14 0.14 0.11 0.16 0.25 0.27 0.10 0.08 0.19 0.15 0.09 0.05 0.04 0.04 0.03 0.02 0.02 0.01 0.02 0.04 0.06 0.12 0.08 0.08 0.03 0.08 0.08 0.17 0.42 0.09 0.02 0.03 0.02 0.01 0.01 0.00 0.00 0.00 0.01 0.01 0.01 0.00 0.00 0.01 0.01 0.00 0.00 0.00 0.00 0.00 0.00
0.28 0.30 0.19 0.16 0.12 0.14 0.28 0.22 0.14 0.07 0.08 0.06 0.03 0.04 0.04 0.02 0.02 0.01 0.02 0.02 0.00 0.03 0.07 0.06 0.13 0.10 0.14 0.03 0.01 0.01 0.01 0.02 0.01 0.03 0.02 0.01 0.00 0.01 0.00 0.01 0.01 0.01 0.01 0.01 0.01 0.01 0.00 0.00 0.00 0.00 0.00 0.00 0.00 0.00
0.15 0.12 0.12 0.12 0.17 0.30 0.23 0.11 0.10 0.05 0.02 0.02 0.02 0.02 0.00 0.01 0.03 0.02 0.01 0.00 0.01 0.03 0.05 0.11 0.23 0.05 0.03 0.02 0.02 0.00 0.02 0.03 0.02 0.02 0.02 0.01 0.00 0.00 0.00 0.01 0.01 0.01 0.01 0.01 0.00 0.00 0.00 0.00 0.01 0.00 0.00 0.00 0.00 0.00
0.15 0.11 0.05 0.03 0.03 0.13 0.11 0.04 0.08 0.04 0.01 0.01 0.01 0.00 0.00 0.01 0.01 0.01 0.01 0.03 0.00 0.00 0.02 0.01 0.01 0.02 0.02 0.00 0.01 0.01 0.01 0.01 0.02 0.02 0.02 0.01 0.01 0.01 0.01 0.01 0.01 0.01 0.00 0.00 0.00 0.00 0.00 0.00 0.01 0.00 0.00 0.00 0.00 0.00
0.16 0.07 0.03 0.02 0.14 0.15 0.01 0.01 0.01 0.03 0.01 0.00 0.00 0.00 0.00 0.01 0.00 0.00 0.00 0.01 0.00 0.00 0.01 0.01 0.01 0.00 0.00 0.00 0.00 0.00 0.00 0.00 0.00 0.02 0.04 0.04 0.01 0.01 0.01 0.01 0.01 0.00 0.00 0.01 0.01 0.00 0.00 0.00 0.00 0.00 0.00 0.00 0.00 0.01
0.45 0.30 0.10 0.12 0.19 0.06 0.04 0.01 0.00 0.00 0.00 0.00 0.00 0.00 0.00 0.01 0.01 0.01 0.01 0.00 0.03 0.02 0.02 0.01 0.00 0.00 0.00 0.00 0.00 0.00 0.00 0.00 0.00 0.00 0.01 0.02 0.02 0.00 0.01 0.02 0.00 0.00 0.01 0.01 0.01 0.00 0.00 0.00 0.00 0.00 0.00 0.00 0.00 0.00
0.27 0.14 0.12 0.16 0.13 0.02 0.08 0.01 0.00 0.00 0.00 0.00 0.00 0.00 0.01 0.01 0.01 0.01 0.03 0.04 0.03 0.01 0.00 0.00 0.00 0.00 0.00 0.00 0.00 0.00 0.00 0.00 0.00 0.00 0.00 0.00 0.01 0.01 0.02 0.01 0.01 0.01 0.02 0.01 0.01 0.01 0.00 0.00 0.00 0.00 0.00 0.01 0.00 0.00
0.03 0.04 0.02 0.04 0.15 0.05 0.07 0.01 0.00 0.00 0.00 0.01 0.01 0.01 0.01 0.01 0.01 0.00 0.02 0.01 0.02 0.00 0.00 0.00 0.00 0.00 0.00 0.00 0.00 0.00 0.00 0.00 0.00 0.00 0.00 0.00 0.01 0.01 0.01 0.01 0.02 0.01 0.01 0.01 0.00 0.00 0.00 0.00 0.00 0.00 0.00 0.00 0.00 0.01
0.05 0.07 0.06 0.09 0.10 0.05 0.05 0.05 0.00 0.00 0.01 0.00 0.01 0.01 0.01 0.01 0.01 0.01 0.01 0.01 0.01 0.01 0.01 0.00 0.00 0.00 0.01 0.00 0.00 0.00 0.00 0.00 0.00 0.01 0.01 0.00 0.01 0.01 0.00 0.00 0.00 0.00 0.00 0.00 0.00 0.00 0.00 0.00 0.00 0.00 0.00 0.00 0.00 0.01
0.11 0.06 0.10 0.14 0.07 0.01 0.01 0.02 0.01 0.01 0.01 0.00 0.01 0.00 0.01 0.01 0.00 0.01 0.00 0.02 0.01 0.03 0.02 0.01 0.01 0.01 0.01 0.01 0.01 0.01 0.00 0.00 0.00 0.01 0.01 0.00 0.00 0.01 0.01 0.00 0.00 0.00 0.00 0.00 0.01 0.01 0.01 0.00 0.00 0.00 0.00 0.00 0.00 0.00
0.14 0.07 0.01 0.02 0.02 0.00 0.00 0.01 0.01 0.00 0.00 0.01 0.01 0.01 0.01 0.01 0.01 0.01 0.02 0.03 0.02 0.02 0.02 0.02 0.01 0.02 0.03 0.00 0.01 0.01 0.00 0.00 0.00 0.00 0.02 0.00 0.00 0.00 0.00 0.00 0.00 0.01 0.00 0.00 0.00 0.00 0.00 0.00 0.00 0.00 0.00 0.00 0.00 0.00
0.04 0.07 0.02 0.01 0.01 0.01 0.01 0.00 0.00 0.00 0.00 0.00 0.01 0.01 0.01 0.01 0.01 0.01 0.02 0.03 0.04 0.02 0.01 0.02 0.01 0.02 0.01 0.01 0.01 0.01 0.00 0.00 0.00 0.00 0.00 0.00 0.00 0.00 0.00 0.00 0.00 0.01 0.00 0.00 0.00 0.00 0.00 0.00 0.00 0.00 0.00 0.00 0.00 0.00
0.01 0.00 0.01 0.02 0.02 0.03 0.02 0.01 0.00 0.00 0.00 0.00 0.00 0.01 0.00 0.00 0.02 0.03 0.02 0.03 0.10 0.04 0.04 0.06 0.07 0.03 0.00 0.00 0.00 0.01 0.01 0.01 0.00 0.00 0.00 0.01 0.01 0.01 0.00 0.00 0.00 0.00 0.00 0.00 0.00 0.00 0.00 0.00 0.00 0.00 0.00 0.00 0.00 0.01
0.01 0.00 0.00 0.02 0.03 0.02 0.00 0.00 0.00 0.00 0.00 0.00 0.01 0.01 0.01 0.00 0.02 0.02 0.02 0.04 0.06 0.02 0.02 0.03 0.08 0.02 0.03 0.04 0.04 0.02 0.01 0.00 0.00 0.01 0.01 0.01 0.02 0.02 0.00 0.00 0.00 0.00 0.00 0.00 0.00 0.00 0.00 0.00 0.00 0.00 0.00 0.00 0.00 0.01
0.00 0.00 0.00 0.00 0.00 0.00 0.01 0.01 0.02 0.01 0.00 0.00 0.00 0.00 0.00 0.01 0.01 0.01 0.02 0.04 0.06 0.06 0.03 0.01 0.02 0.02 0.03 0.03 0.05 0.07 0.05 0.02 0.00 0.00 0.00 0.01 0.01 0.01 0.01 0.00 0.00 0.00 0.00 0.00 0.00 0.00 0.00 0.00 0.00 0.00 0.00 0.00 0.00 0.00
0.01 0.01 0.00 0.00 0.01 0.03 0.02 0.01 0.01 0.00 0.00 0.00 0.01 0.02 0.02 0.01 0.02 0.02 0.05 0.06 0.09 0.06 0.02 0.05 0.06 0.04 0.02 0.01 0.00 0.00 0.03 0.03 0.02 0.01 0.00 0.00 0.00 0.01 0.01 0.00 0.00 0.00 0.00 0.00 0.00 0.00 0.00 0.00 0.00 0.00 0.00 0.00 0.00 0.00
0.06 0.08 0.04 0.02 0.02 0.02 0.01 0.02 0.02 0.02 0.01 0.01 0.02 0.02 0.01 0.02 0.02 0.02 0.01 0.05 0.08 0.07 0.04 0.02 0.03 0.06 0.03 0.03 0.02 0.02 0.01 0.03 0.02 0.00 0.00 0.00 0.00 0.01 0.01 0.00 0.00 0.00 0.00 0.00 0.00 0.00 0.00 0.00 0.00 0.00 0.00 0.00 0.00 0.00
0.17 0.18 0.14 0.09 0.06 0.04 0.04 0.10 0.11 0.07 0.03 0.02 0.02 0.02 0.02 0.03 0.03 0.02 0.02 0.05 0.11 0.08 0.05 0.04 0.03 0.03 0.05 0.06 0.05 0.05 0.04 0.04 0.03 0.01 0.00 0.00 0.00 0.00 0.00 0.00 0.00 0.00 0.00 0.00 0.00 0.00 0.00 0.00 0.00 0.00 0.00 0.00 0.00 0.00

GFSWCAN_prec_precacc24_105.txt.gz
Total_Precipitation_Accumulation
0.62 0.59 0.52 0.55 0.15 0.14 0.26 0.22 0.07 0.04 0.01 0.03 0.01 0.00 0.01 0.01 0.01 0.05 0.07 0.00 0.01 0.01 0.00 0.00 0.00 0.00 0.00 0.00 0.01 0.01 0.02 0.04 0.01 0.03 0.12 0.06 0.08 0.14 0.42 0.81 0.25 0.28 0.19 0.21 0.30 0.58 0.58 0.09 0.22 0.45 0.57 0.37 0.27 0.35
0.59 0.68 0.51 0.47 0.16 0.09 0.19 0.12 0.05 0.02 0.01 0.03 0.04 0.02 0.01 0.01 0.01 0.04 0.07 0.00 0.00 0.00 0.00 0.00 0.00 0.00 0.00 0.00 0.00 0.00 0.01 0.02 0.02 0.03 0.03 0.03 0.06 0.24 0.38 0.49 0.40 0.78 0.75 0.85 0.59 0.59 0.41 0.20 0.30 0.37 0.34 0.29 0.32 0.31
0.51 0.77 0.56 0.32 0.18 0.10 0.11 0.07 0.04 0.02 0.02 0.03 0.04 0.03 0.02 0.01 0.00 0.01 0.05 0.01 0.01 0.00 0.00 0.00 0.00 0.00 0.00 0.00 0.00 0.00 0.03 0.03 0.03 0.03 0.04 0.02 0.05 0.10 0.19 0.46 0.33 0.22 0.20 0.33 0.26 0.22 0.19 0.27 0.22 0.19 0.21 0.22 0.24 0.19
0.53 0.83 0.48 0.20 0.13 0.09 0.08 0.04 0.03 0.02 0.02 0.04 0.05 0.02 0.01 0.00 0.00 0.00 0.03 0.04 0.01 0.01 0.00 0.01 0.00 0.00 0.00 0.00 0.00 0.00 0.01 0.00 0.00 0.00 0.02 0.02 0.03 0.08 0.08 0.31 0.14 0.02 0.02 0.09 0.12 0.14 0.13 0.16 0.23 0.20 0.20 0.16 0.15 0.14
0.69 0.68 0.30 0.16 0.12 0.06 0.06 0.03 0.01 0.02 0.05 0.06 0.03 0.00 0.00 0.00 0.00 0.01 0.02 0.03 0.02 0.02 0.05 0.01 0.00 0.00 0.00 0.00 0.00 0.00 0.00 0.00 0.00 0.01 0.01 0.01 0.02 0.07 0.06 0.21 0.08 0.01 0.03 0.03 0.08 0.06 0.07 0.16 0.21 0.16 0.17 0.17 0.13 0.06
0.81 0.40 0.22 0.19 0.10 0.04 0.02 0.02 0.01 0.03 0.08 0.08 0.01 0.00 0.00 0.00 0.00 0.04 0.02 0.01 0.01 0.03 0.02 0.01 0.00 0.00 0.00 0.00 0.00 0.00 0.00 0.00 0.00 0.00 0.00 0.00 0.02 0.05 0.03 0.11 0.09 0.01 0.01 0.02 0.05 0.06 0.04 0.11 0.13 0.09 0.07 0.06 0.03 0.02
0.68 0.24 0.18 0.20 0.08 0.02 0.01 0.01 0.03 0.06 0.09 0.08 0.02 0.00 0.00 0.00 0.01 0.04 0.04 0.04 0.01 0.01 0.02 0.02 0.01 0.00 0.00 0.00 0.01 0.04 0.01 0.00 0.00 0.01 0.00 0.01 0.01 0.03 0.05 0.08 0.02 0.00 0.01 0.02 0.04 0.08 0.11 0.12 0.09 0.05 0.01 0.01 0.00 0.00
0.39 0.17 0.12 0.18 0.07 0.02 0.02 0.02 0.05 0.09 0.08 0.08 0.02 0.00 0.00 0.01 0.02 0.03 0.02 0.01 0.00 0.04 0.06 0.03 0.02 0.02 0.00 0.01 0.05 0.07 0.02 0.00 0.01 0.00 0.01 0.02 0.02 0.04 0.07 0.02 0.00 0.01 0.03 0.06 0.09 0.08 0.05 0.03 0.01 0.00 0.00 0.00 0.00 0.00
0.24 0.15 0.08 0.13 0.06 0.02 0.03 0.03 0.07 0.12 0.09 0.05 0.00 0.01 0.03 0.03 0.02 0.01 0.02 0.01 0.03 0.13 0.10 0.03 0.02 0.10 0.03 0.05 0.11 0.10 0.06 0.03 0.02 0.02 0.02 0.02 0.04 0.04 0.02 0.01 0.00 0.01 0.09 0.12 0.12 0.04 0.01 0.01 0.01 0.00 0.00 0.00 0.00 0.00
0.16 0.14 0.06 0.09 0.06 0.02 0.03 0.04 0.11 0.12 0.07 0.02 0.01 0.04 0.03 0.01 0.02 0.01 0.02 0.03 0.06 0.08 0.05 0.02 0.01 0.12 0.04 0.02 0.06 0.10 0.06 0.03 0.05 0.04 0.01 0.02 0.04 0.03 0.01 0.00 0.00 0.02 0.05 0.08 0.11 0.07 0.03 0.02 0.00 0.00 0.00 0.00 0.00 0.00
0.12 0.10 0.07 0.08 0.05 0.02 0.03 0.06 0.11 0.10 0.04 0.02 0.05 0.15 0.11 0.06 0.04 0.08 0.05 0.04 0.03 0.04 0.01 0.00 0.01 0.06 0.05 0.02 0.04 0.04 0.09 0.13 0.12 0.13 0.04 0.06 0.05 0.04 0.03 0.02 0.02 0.02 0.08 0.09 0.07 0.04 0.03 0.01 0.00 0.00 0.00 0.00 0.00 0.00
0.11 0.08 0.10 0.09 0.05 0.04 0.04 0.07 0.06 0.01 0.00 0.02 0.11 0.18 0.15 0.09 0.10 0.08 0.05 0.02 0.03 0.01 0.01 0.01 0.01 0.02 0.06 0.05 0.10 0.08 0.09 0.19 0.32 0.20 0.06 0.14 0.09 0.05 0.04 0.03 0.02 0.01 0.02 0.04 0.04 0.03 0.01 0.00 0.00 0.00 0.00 0.00 0.00 0.01
0.11 0.07 0.13 0.10 0.06 0.05 0.05 0.04 0.02 0.01 0.04 0.14 0.17 0.07 0.12 0.09 0.10 0.02 0.01 0.01 0.01 0.01 0.02 0.01 0.01 0.01 0.05 0.05 0.04 0.08 0.19 0.22 0.31 0.44 0.19 0.10 0.04 0.04 0.03 0.02 0.01 0.00 0.00 0.03 0.03 0.01 0.00 0.00 0.00 0.00 0.00 0.01 0.00 0.00
0.11 0.10 0.17 0.10 0.05 0.05 0.04 0.05 0.04 0.03 0.13 0.15 0.11 0.06 0.09 0.06 0.01 0.01 0.03 0.03 0.04 0.04 0.03 0.02 0.01 0.01 0.03 0.02 0.00 0.02 0.06 0.09 0.21 0.19 0.15 0.03 0.02 0.02 0.01 0.00 0.00 0.01 0.02 0.03 0.03 0.01 0.00 0.00 0.00 0.00 0.00 0.00 0.00 0.00
0.11 0.16 0.19 0.10 0.10 0.08 0.07 0.06 0.03 0.05 0.15 0.23 0.12 0.06 0.03 0.04 0.05 0.05 0.03 0.02 0.00 0.01 0.03 0.02 0.03 0.03 0.02 0.02 0.02 0.05 0.11 0.22 0.31 0.38 0.04 0.02 0.01 0.00 0.00 0.00 0.01 0.01 0.02 0.02 0.02 0.01 0.01 0.01 0.00 0.01 0.00 0.00 0.00 0.00
0.15 0.36 0.20 0.14 0.14 0.09 0.07 0.07 0.11 0.08 0.08 0.20 0.16 0.11 0.06 0.06 0.06 0.05 0.04 0.03 0.01 0.02 0.02 0.02 0.05 0.04 0.05 0.02 0.07 0.08 0.18 0.43 0.10 0.02 0.02 0.01 0.01 0.01 0.00 0.01 0.01 0.01 0.01 0.02 0.01 0.00 0.00 0.00 0.00 0.00 0.00 0.00 0.00 0.00
0.27 0.29 0.20 0.16 0.11 0.08 0.07 0.10 0.11 0.07 0.08 0.07 0.04 0.05 0.06 0.03 0.04 0.02 0.03 0.02 0.01 0.04 0.04 0.04 0.12 0.09 0.13 0.03 0.01 0.01 0.02 0.03 0.01 0.02 0.02 0.00 0.01 0.01 0.00 0.01 0.00 0.01 0.01 0.01 0.00 0.00 0.00 0.00 0.00 0.00 0.00 0.00 0.00 0.00
0.14 0.11 0.12 0.10 0.07 0.13 0.12 0.10 0.10 0.05 0.03 0.04 0.04 0.03 0.01 0.02 0.03 0.01 0.00 0.00 0.01 0.03 0.05 0.11 0.24 0.06 0.04 0.03 0.04 0.00 0.01 0.03 0.01 0.02 0.02 0.01 0.00 0.00 0.00 0.00 0.01 0.01 0.01 0.00 0.00 0.00 0.00 0.00 0.01 0.00 0.00 0.00 0.00 0.00
0.13 0.09 0.03 0.01 0.01 0.11 0.09 0.03 0.08 0.04 0.02 0.01 0.01 0.00 0.00 0.01 0.01 0.01 0.01 0.03 0.00 0.01 0.02 0.01 0.01 0.03 0.02 0.01 0.01 0.00 0.01 0.01 0.02 0.02 0.02 0.01 0.00 0.00 0.01 0.00 0.00 0.00 0.00 0.00 0.00 0.00 0.00 0.00 0.01 0.00 0.00 0.00 0.00 0.00
0.12 0.04 0.00 0.01 0.13 0.15 0.01 0.01 0.01 0.03 0.01 0.01 0.01 0.00 0.00 0.01 0.00 0.00 0.01 0.02 0.00 0.00 0.01 0.01 0.01 0.01 0.01 0.00 0.00 0.00 0.00 0.00 0.00 0.02 0.03 0.03 0.01 0.00 0.00 0.00 0.00 0.00 0.00 0.00 0.00 0.00 0.00 0.00 0.00 0.00 0.00 0.00 0.00 0.00
0.31 0.22 0.08 0.11 0.19 0.06 0.04 0.01 0.00 0.01 0.01 0.01 0.00 0.00 0.01 0.01 0.01 0.01 0.01 0.00 0.03 0.02 0.02 0.01 0.00 0.00 0.00 0.00 0.00 0.00 0.00 0.00 0.00 0.00 0.01 0.02 0.01 0.00 0.00 0.01 0.00 0.00 0.00 0.00 0.01 0.00 0.00 0.00 0.00 0.00 0.00 0.00 0.00 0.00
0.25 0.13 0.12 0.16 0.13 0.02 0.08 0.01 0.00 0.00 0.01 0.01 0.00 0.00 0.01 0.01 0.01 0.01 0.03 0.04 0.03 0.01 0.00 0.00 0.00 0.00 0.00 0.00 0.00 0.00 0.00 0.00 0.00 0.00 0.00 0.00 0.01 0.01 0.02 0.01 0.00 0.01 0.02 0.01 0.01 0.01 0.00 0.00 0.00 0.00 0.00 0.01 0.00 0.00
0.03 0.04 0.02 0.04 0.15 0.05 0.07 0.01 0.00 0.00 0.01 0.01 0.01 0.02 0.02 0.01 0.01 0.01 0.02 0.01 0.02 0.00 0.00 0.00 0.00 0.00 0.00 0.00 0.00 0.00 0.00 0.00 0.00 0.00 0.00 0.00 0.01 0.01 0.00 0.00 0.01 0.01 0.01 0.00 0.00 0.00 0.00 0.00 0.00 0.00 0.00 0.00 0.00 0.01
0.05 0.07 0.06 0.09 0.10 0.06 0.05 0.05 0.00 0.00 0.01 0.01 0.01 0.01 0.01 0.01 0.01 0.01 0.01 0.01 0.01 0.00 0.00 0.00 0.00 0.00 0.01 0.00 0.00 0.00 0.00 0.00 0.00 0.01 0.01 0.00 0.01 0.01 0.00 0.00 0.00 0.00 0.00 0.00 0.00 0.00 0.00 0.00 0.00 0.00 0.00 0.00 0.00 0.01
0.11 0.06 0.10 0.14 0.07 0.01 0.02 0.02 0.01 0.01 0.01 0.00 0.01 0.00 0.01 0.01 0.01 0.01 0.00 0.02 0.01 0.02 0.01 0.01 0.01 0.01 0.01 0.01 0.01 0.01 0.00 0.00 0.00 0.01 0.01 0.00 0.00 0.01 0.01 0.00 0.00 0.00 0.00 0.00 0.01 0.01 0.01 0.00 0.00 0.00 0.00 0.00 0.00 0.00
0.14 0.06 0.01 0.02 0.02 0.00 0.00 0.01 0.01 0.00 0.00 0.01 0.01 0.01 0.01 0.01 0.01 0.01 0.02 0.03 0.01 0.01 0.02 0.02 0.01 0.02 0.03 0.00 0.01 0.01 0.00 0.00 0.00 0.00 0.02 0.00 0.00 0.00 0.00 0.00 0.01 0.01 0.00 0.01 0.00 0.01 0.01 0.01 0.00 0.00 0.00 0.00 0.00 0.00
0.04 0.06 0.02 0.01 0.01 0.01 0.01 0.01 0.00 0.00 0.00 0.00 0.01 0.01 0.01 0.01 0.01 0.01 0.02 0.02 0.03 0.01 0.01 0.01 0.01 0.02 0.02 0.01 0.01 0.01 0.00 0.00 0.00 0.00 0.00 0.00 0.00 0.00 0.00 0.00 0.01 0.01 0.00 0.00 0.00 0.00 0.00 0.00 0.00 0.00 0.00 0.01 0.00 0.00
0.01 0.00 0.01 0.02 0.02 0.03 0.03 0.02 0.00 0.00 0.01 0.00 0.00 0.01 0.00 0.00 0.03 0.03 0.03 0.03 0.08 0.03 0.04 0.05 0.07 0.03 0.00 0.00 0.00 0.01 0.01 0.01 0.00 0.00 0.00 0.01 0.01 0.01 0.00 0.01 0.00 0.00 0.00 0.00 0.00 0.00 0.00 0.00 0.00 0.00 0.00 0.00 0.00 0.01
0.01 0.00 0.00 0.02 0.04 0.02 0.01 0.01 0.01 0.00 0.00 0.00 0.01 0.01 0.01 0.00 0.01 0.01 0.01 0.04 0.05 0.01 0.01 0.03 0.08 0.03 0.03 0.04 0.04 0.03 0.01 0.00 0.00 0.01 0.01 0.02 0.02 0.03 0.01 0.00 0.00 0.00 0.00 0.00 0.00 0.00 0.00 0.00 0.00 0.00 0.00 0.00 0.00 0.01
0.00 0.00 0.01 0.00 0.00 0.01 0.02 0.01 0.02 0.00 0.00 0.00 0.00 0.00 0.00 0.01 0.00 0.00 0.01 0.02 0.04 0.04 0.03 0.01 0.02 0.02 0.03 0.03 0.06 0.08 0.06 0.02 0.00 0.00 0.01 0.01 0.01 0.01 0.01 0.01 0.00 0.00 0.00 0.00 0.00 0.01 0.00 0.00 0.00 0.00 0.00 0.00 0.00 0.00
0.01 0.01 0.01 0.00 0.01 0.02 0.02 0.01 0.00 0.00 0.00 0.00 0.00 0.02 0.01 0.01 0.01 0.01 0.03 0.05 0.07 0.06 0.02 0.05 0.06 0.04 0.02 0.02 0.01 0.01 0.04 0.04 0.02 0.01 0.01 0.00 0.00 0.01 0.02 0.01 0.01 0.00 0.00 0.00 0.00 0.00 0.00 0.00 0.00 0.00 0.00 0.00 0.00 0.00
0.06 0.08 0.04 0.02 0.02 0.02 0.01 0.02 0.02 0.01 0.01 0.01 0.02 0.02 0.01 0.01 0.01 0.01 0.01 0.04 0.07 0.06 0.04 0.02 0.03 0.06 0.03 0.03 0.03 0.02 0.01 0.03 0.02 0.00 0.00 0.00 0.01 0.02 0.02 0.01 0.01 0.00 0.00 0.00 0.00 0.00 0.00 0.00 0.00 0.00 0.00 0.00 0.00 0.00
0.18 0.19 0.15 0.10 0.07 0.04 0.04 0.10 0.12 0.07 0.02 0.02 0.02 0.02 0.02 0.03 0.02 0.02 0.01 0.04 0.09 0.07 0.05 0.05 0.04 0.04 0.05 0.06 0.06 0.05 0.04 0.04 0.04 0.01 0.00 0.00 0.01 0.01 0.01 0.01 0.00 0.00 0.00 0.00 0.00 0.00 0.00 0.00 0.00 0.00 0.00 0.00 0.00 0.00

GFSWCAN_prec_precacc24_108.txt.gz
Total_Precipitation_Accumulation
0.60 0.57 0.50 0.53 0.15 0.23 0.40 0.41 0.14 0.11 0.06 0.06 0.05 0.02 0.01 0.01 0.03 0.09 0.08 0.01 0.06 0.18 0.01 0.02 0.02 0.02 0.01 0.01 0.01 0.00 0.00 0.00 0.00 0.01 0.05 0.03 0.02 0.01 0.32 0.76 0.22 0.24 0.15 0.18 0.26 0.50 0.52 0.09 0.21 0.45 0.57 0.36 0.27 0.36
0.56 0.66 0.50 0.43 0.18 0.22 0.40 0.29 0.08 0.07 0.04 0.03 0.03 0.02 0.02 0.01 0.03 0.06 0.12 0.01 0.01 0.07 0.01 0.00 0.00 0.00 0.00 0.00 0.00 0.00 0.00 0.01 0.00 0.00 0.01 0.01 0.01 0.12 0.23 0.33 0.32 0.71 0.70 0.63 0.50 0.48 0.39 0.20 0.29 0.37 0.34 0.29 0.32 0.31
0.50 0.73 0.53 0.35 0.31 0.26 0.19 0.09 0.04 0.03 0.02 0.02 0.04 0.03 0.02 0.03 0.04 0.03 0.13 0.01 0.01 0.01 0.01 0.00 0.00 0.00 0.00 0.00 0.00 0.00 0.00 0.01 0.00 0.00 0.02 0.02 0.03 0.05 0.13 0.33 0.19 0.16 0.19 0.27 0.22 0.21 0.19 0.27 0.22 0.19 0.21 0.22 0.24 0.19
0.53 0.80 0.53 0.35 0.30 0.16 0.10 0.04 0.02 0.01 0.02 0.03 0.05 0.03 0.02 0.03 0.03 0.02 0.05 0.02 0.03 0.02 0.02 0.00 0.00 0.00 0.00 0.00 0.00 0.00 0.00 0.00 0.00 0.00 0.01 0.03 0.03 0.05 0.08 0.28 0.11 0.01 0.02 0.09 0.11 0.14 0.13 0.15 0.21 0.18 0.20 0.16 0.15 0.14
0.69 0.69 0.48 0.31 0.17 0.08 0.06 0.02 0.01 0.02 0.04 0.06 0.05 0.02 0.01 0.02 0.01 0.02 0.03 0.01 0.02 0.04 0.02 0.00 0.00 0.00 0.00 0.00 0.00 0.00 0.00 0.00 0.00 0.00 0.00 0.02 0.01 0.02 0.04 0.15 0.04 0.01 0.03 0.03 0.06 0.05 0.06 0.15 0.18 0.15 0.15 0.16 0.11 0.05
0.81 0.49 0.36 0.20 0.10 0.04 0.03 0.01 0.01 0.03 0.08 0.10 0.03 0.02 0.01 0.00 0.00 0.06 0.04 0.01 0.00 0.01 0.01 0.00 0.00 0.00 0.00 0.00 0.00 0.00 0.00 0.00 0.00 0.00 0.00 0.00 0.00 0.02 0.03 0.04 0.04 0.01 0.01 0.01 0.04 0.04 0.03 0.07 0.09 0.06 0.05 0.04 0.02 0.01
0.68 0.31 0.19 0.16 0.08 0.02 0.01 0.01 0.02 0.05 0.09 0.08 0.03 0.01 0.00 0.00 0.02 0.03 0.02 0.02 0.00 0.00 0.00 0.00 0.00 0.00 0.00 0.00 0.00 0.01 0.01 0.00 0.00 0.00 0.00 0.00 0.00 0.02 0.05 0.05 0.01 0.00 0.00 0.01 0.02 0.03 0.06 0.07 0.06 0.03 0.01 0.00 0.00 0.00
0.41 0.21 0.13 0.09 0.06 0.02 0.02 0.02 0.06 0.08 0.07 0.07 0.02 0.00 0.00 0.00 0.01 0.01 0.01 0.00 0.00 0.01 0.01 0.00 0.00 0.00 0.00 0.00 0.01 0.03 0.01 0.00 0.00 0.00 0.00 0.00 0.00 0.02 0.04 0.02 0.00 0.00 0.01 0.02 0.04 0.03 0.02 0.01 0.01 0.00 0.00 0.00 0.00 0.00
0.27 0.16 0.09 0.08 0.05 0.02 0.03 0.04 0.07 0.11 0.08 0.05 0.00 0.00 0.01 0.02 0.01 0.01 0.01 0.00 0.00 0.01 0.02 0.01 0.00 0.03 0.01 0.01 0.02 0.05 0.03 0.01 0.00 0.01 0.00 0.01 0.02 0.03 0.02 0.01 0.00 0.01 0.04 0.06 0.06 0.02 0.01 0.01 0.01 0.00 0.00 0.00 0.00 0.00
0.16 0.16 0.07 0.08 0.05 0.02 0.03 0.04 0.10 0.10 0.06 0.01 0.00 0.01 0.02 0.00 0.01 0.00 0.01 0.01 0.01 0.02 0.02 0.02 0.00 0.04 0.03 0.01 0.03 0.05 0.03 0.01 0.02 0.03 0.01 0.01 0.04 0.03 0.01 0.00 0.00 0.02 0.03 0.05 0.07 0.05 0.02 0.02 0.00 0.00 0.00 0.00 0.00 0.00
0.14 0.12 0.05 0.07 0.05 0.03 0.03 0.05 0.10 0.07 0.02 0.00 0.00 0.04 0.06 0.04 0.01 0.02 0.02 0.01 0.01 0.01 0.00 0.00 0.00 0.02 0.03 0.01 0.02 0.02 0.05 0.10 0.11 0.13 0.04 0.05 0.05 0.04 0.03 0.02 0.02 0.02 0.08 0.09 0.07 0.04 0.03 0.01 0.00 0.00 0.00 0.00 0.00 0.00
0.12 0.06 0.08 0.09 0.05 0.03 0.03 0.06 0.04 0.00 0.00 0.00 0.04 0.13 0.11 0.06 0.05 0.05 0.04 0.01 0.01 0.00 0.00 0.01 0.00 0.01 0.02 0.02 0.03 0.04 0.08 0.17 0.33 0.18 0.06 0.13 0.09 0.05 0.04 0.03 0.02 0.01 0.02 0.04 0.04 0.02 0.01 0.00 0.00 0.00 0.00 0.00 0.00 0.00
0.09 0.06 0.12 0.10 0.05 0.03 0.03 0.03 0.01 0.01 0.00 0.02 0.10 0.03 0.07 0.06 0.08 0.02 0.01 0.00 0.00 0.00 0.01 0.01 0.01 0.01 0.02 0.03 0.01 0.05 0.18 0.22 0.28 0.41 0.18 0.12 0.04 0.04 0.03 0.02 0.01 0.00 0.00 0.03 0.03 0.01 0.00 0.00 0.00 0.00 0.00 0.00 0.00 0.00
0.09 0.09 0.15 0.09 0.04 0.03 0.03 0.04 0.03 0.01 0.02 0.07 0.06 0.03 0.07 0.05 0.01 0.01 0.02 0.01 0.02 0.03 0.02 0.02 0.01 0.01 0.02 0.01 0.00 0.01 0.02 0.04 0.16 0.18 0.19 0.03 0.02 0.02 0.02 0.01 0.00 0.01 0.02 0.04 0.03 0.01 0.00 0.00 0.00 0.00 0.00 0.00 0.00 0.00
0.10 0.15 0.16 0.08 0.08 0.07 0.06 0.05 0.01 0.01 0.06 0.15 0.10 0.05 0.02 0.03 0.05 0.05 0.03 0.02 0.00 0.02 0.02 0.01 0.01 0.02 0.01 0.01 0.00 0.01 0.05 0.16 0.28 0.40 0.06 0.02 0.01 0.01 0.02 0.01 0.01 0.02 0.02 0.02 0.02 0.01 0.01 0.01 0.00 0.00 0.00 0.00 0.00 0.00
0.13 0.33 0.16 0.13 0.13 0.08 0.06 0.02 0.01 0.01 0.04 0.18 0.16 0.12 0.07 0.07 0.08 0.06 0.04 0.02 0.01 0.02 0.03 0.01 0.02 0.01 0.01 0.01 0.03 0.04 0.15 0.43 0.12 0.02 0.01 0.01 0.01 0.01 0.01 0.02 0.02 0.02 0.02 0.02 0.01 0.01 0.01 0.00 0.00 0.00 0.00 0.00 0.00 0.00
0.25 0.27 0.18 0.15 0.10 0.05 0.01 0.00 0.01 0.02 0.06 0.07 0.05 0.06 0.10 0.04 0.06 0.04 0.04 0.03 0.02 0.05 0.03 0.02 0.06 0.04 0.09 0.02 0.01 0.02 0.04 0.04 0.01 0.02 0.01 0.00 0.01 0.01 0.04 0.04 0.03 0.03 0.02 0.01 0.01 0.00 0.00 0.00 0.00 0.00 0.00 0.00 0.00 0.00
0.12 0.08 0.11 0.08 0.04 0.02 0.01 0.02 0.06 0.04 0.04 0.07 0.05 0.04 0.01 0.02 0.03 0.01 0.00 0.00 0.04 0.04 0.04 0.09 0.22 0.05 0.03 0.03 0.07 0.01 0.01 0.02 0.01 0.01 0.01 0.01 0.00 0.00 0.01 0.01 0.01 0.01 0.01 0.00 0.00 0.00 0.00 0.00 0.00 0.00 0.00 0.00 0.00 0.00
0.08 0.07 0.02 0.00 0.00 0.03 0.03 0.02 0.08 0.04 0.03 0.02 0.02 0.01 0.01 0.01 0.01 0.01 0.01 0.03 0.00 0.01 0.03 0.01 0.01 0.02 0.02 0.03 0.02 0.00 0.01 0.00 0.02 0.02 0.01 0.01 0.00 0.00 0.00 0.00 0.00 0.00 0.00 0.00 0.00 0.00 0.00 0.00 0.01 0.00 0.00 0.00 0.00 0.00
0.08 0.03 0.00 0.00 0.08 0.12 0.01 0.01 0.01 0.03 0.02 0.02 0.01 0.00 0.00 0.01 0.01 0.01 0.01 0.02 0.00 0.01 0.01 0.01 0.01 0.01 0.01 0.01 0.00 0.00 0.00 0.00 0.00 0.01 0.03 0.03 0.01 0.00 0.00 0.00 0.00 0.00 0.00 0.00 0.00 0.00 0.00 0.00 0.00 0.00 0.00 0.00 0.00 0.00
0.25 0.15 0.04 0.03 0.14 0.06 0.04 0.02 0.00 0.01 0.00 0.01 0.00 0.00 0.00 0.01 0.01 0.02 0.01 0.01 0.03 0.02 0.02 0.01 0.01 0.00 0.00 0.00 0.00 0.00 0.00 0.00 0.00 0.00 0.01 0.02 0.01 0.00 0.00 0.00 0.00 0.00 0.00 0.00 0.00 0.00 0.00 0.00 0.00 0.00 0.00 0.01 0.00 0.00
0.17 0.06 0.05 0.10 0.13 0.02 0.08 0.01 0.00 0.00 0.00 0.00 0.00 0.01 0.01 0.01 0.01 0.01 0.03 0.04 0.02 0.01 0.00 0.00 0.00 0.00 0.00 0.00 0.00 0.00 0.00 0.00 0.00 0.00 0.00 0.00 0.01 0.01 0.01 0.01 0.00 0.00 0.01 0.00 0.00 0.00 0.00 0.00 0.00 0.00 0.01 0.01 0.00 0.00
0.02 0.03 0.01 0.03 0.15 0.04 0.07 0.02 0.01 0.00 0.01 0.01 0.01 0.01 0.01 0.01 0.01 0.01 0.02 0.01 0.01 0.00 0.00 0.00 0.00 0.00 0.00 0.00 0.00 0.00 0.00 0.00 0.00 0.00 0.00 0.00 0.00 0.00 0.00 0.00 0.01 0.01 0.01 0.01 0.00 0.00 0.01 0.00 0.00 0.01 0.00 0.00 0.00 0.00
0.04 0.05 0.04 0.09 0.10 0.05 0.05 0.05 0.00 0.01 0.01 0.01 0.01 0.01 0.01 0.01 0.01 0.01 0.01 0.01 0.00 0.00 0.00 0.00 0.00 0.00 0.00 0.00 0.00 0.00 0.00 0.00 0.00 0.00 0.01 0.00 0.01 0.01 0.00 0.00 0.00 0.01 0.00 0.00 0.00 0.01 0.01 0.00 0.01 0.00 0.01 0.01 0.01 0.01
0.10 0.06 0.10 0.14 0.07 0.02 0.02 0.02 0.01 0.01 0.01 0.00 0.01 0.01 0.01 0.01 0.00 0.01 0.00 0.01 0.00 0.01 0.01 0.01 0.01 0.01 0.01 0.01 0.01 0.00 0.00 0.00 0.00 0.01 0.01 0.00 0.00 0.01 0.01 0.01 0.01 0.00 0.01 0.01 0.02 0.02 0.01 0.01 0.01 0.01 0.01 0.01 0.00 0.00
0.14 0.06 0.01 0.02 0.02 0.01 0.01 0.01 0.01 0.00 0.00 0.01 0.01 0.01 0.01 0.01 0.01 0.01 0.02 0.02 0.00 0.01 0.01 0.02 0.01 0.01 0.03 0.00 0.01 0.01 0.00 0.00 0.00 0.00 0.02 0.00 0.00 0.00 0.01 0.01 0.02 0.02 0.00 0.01 0.01 0.01 0.01 0.01 0.01 0.01 0.01 0.00 0.00 0.00
0.04 0.06 0.02 0.01 0.01 0.01 0.01 0.01 0.01 0.01 0.00 0.00 0.01 0.01 0.01 0.01 0.01 0.01 0.01 0.01 0.02 0.00 0.00 0.01 0.01 0.02 0.02 0.01 0.01 0.01 0.00 0.00 0.00 0.00 0.00 0.00 0.00 0.00 0.00 0.00 0.01 0.00 0.00 0.01 0.01 0.01 0.00 0.01 0.01 0.01 0.01 0.01 0.00 0.00
0.01 0.00 0.01 0.02 0.02 0.03 0.05 0.03 0.01 0.01 0.01 0.00 0.00 0.01 0.00 0.01 0.04 0.02 0.03 0.02 0.04 0.01 0.02 0.04 0.05 0.02 0.00 0.00 0.00 0.01 0.01 0.01 0.00 0.00 0.00 0.02 0.02 0.02 0.01 0.01 0.00 0.00 0.01 0.01 0.01 0.01 0.01 0.00 0.00 0.00 0.00 0.00 0.00 0.00
0.01 0.00 0.00 0.02 0.04 0.03 0.02 0.03 0.04 0.02 0.01 0.00 0.01 0.02 0.01 0.00 0.01 0.00 0.00 0.03 0.04 0.01 0.01 0.03 0.07 0.02 0.03 0.04 0.04 0.03 0.01 0.00 0.00 0.01 0.01 0.02 0.03 0.04 0.01 0.01 0.01 0.01 0.01 0.02 0.02 0.01 0.00 0.00 0.00 0.00 0.00 0.00 0.00 0.00
0.00 0.00 0.00 0.00 0.00 0.02 0.02 0.02 0.03 0.00 0.00 0.00 0.00 0.00 0.00 0.00 0.00 0.00 0.01 0.01 0.02 0.02 0.01 0.01 0.02 0.02 0.03 0.03 0.06 0.08 0.06 0.02 0.01 0.01 0.01 0.01 0.01 0.01 0.01 0.01 0.01 0.01 0.01 0.01 0.01 0.02 0.01 0.00 0.00 0.00 0.00 0.00 0.00 0.00
0.01 0.01 0.01 0.00 0.01 0.02 0.01 0.01 0.00 0.00 0.00 0.00 0.00 0.01 0.01 0.00 0.00 0.00 0.01 0.02 0.04 0.04 0.02 0.03 0.05 0.03 0.02 0.02 0.01 0.01 0.04 0.04 0.02 0.01 0.01 0.00 0.00 0.01 0.02 0.02 0.01 0.01 0.00 0.00 0.00 0.00 0.00 0.00 0.00 0.00 0.00 0.00 0.00 0.00
0.06 0.08 0.04 0.02 0.02 0.02 0.01 0.01 0.01 0.01 0.00 0.00 0.01 0.01 0.01 0.01 0.01 0.01 0.00 0.02 0.05 0.04 0.02 0.01 0.03 0.04 0.02 0.02 0.03 0.03 0.01 0.03 0.02 0.01 0.00 0.00 0.01 0.02 0.02 0.02 0.01 0.00 0.00 0.00 0.00 0.00 0.00 0.00 0.00 0.00 0.00 0.00 0.00 0.00
0.19 0.19 0.15 0.11 0.06 0.04 0.04 0.10 0.12 0.06 0.02 0.01 0.01 0.01 0.01 0.02 0.02 0.02 0.01 0.03 0.05 0.06 0.05 0.05 0.05 0.05 0.06 0.07 0.06 0.06 0.05 0.04 0.04 0.02 0.00 0.00 0.01 0.01 0.02 0.02 0.01 0.00 0.00 0.00 0.00 0.00 0.00 0.00 0.00 0.00 0.00 0.00 0.00 0.00

GFSWCAN_prec_precacc24_114.txt.gz
Total_Precipitation_Accumulation
0.53 0.53 0.50 0.58 0.25 0.29 0.46 0.46 0.18 0.14 0.09 0.08 0.09 0.09 0.13 0.13 0.13 0.25 0.17 0.05 0.12 0.44 0.33 0.27 0.07 0.13 0.11 0.08 0.08 0.04 0.06 0.02 0.00 0.00 0.01 0.02 0.04 0.01 0.02 0.10 0.15 0.15 0.09 0.11 0.11 0.15 0.12 0.04 0.08 0.26 0.40 0.31 0.27 0.36
0.50 0.62 0.48 0.42 0.19 0.24 0.46 0.38 0.13 0.08 0.06 0.05 0.07 0.10 0.16 0.20 0.13 0.13 0.19 0.08 0.11 0.32 0.21 0.26 0.16 0.08 0.06 0.06 0.01 0.00 0.01 0.00 0.00 0.00 0.00 0.01 0.03 0.02 0.03 0.08 0.08 0.17 0.19 0.21 0.17 0.17 0.17 0.13 0.21 0.27 0.30 0.28 0.32 0.31
0.44 0.69 0.48 0.32 0.34 0.37 0.42 0.23 0.10 0.05 0.04 0.04 0.07 0.11 0.17 0.23 0.12 0.06 0.16 0.10 0.13 0.09 0.10 0.16 0.09 0.06 0.04 0.03 0.00 0.00 0.00 0.00 0.00 0.00 0.02 0.03 0.03 0.02 0.04 0.06 0.01 0.05 0.10 0.11 0.11 0.13 0.14 0.21 0.18 0.16 0.19 0.21 0.23 0.19
0.47 0.75 0.46 0.38 0.59 0.50 0.45 0.14 0.06 0.03 0.04 0.05 0.07 0.09 0.11 0.10 0.06 0.06 0.10 0.07 0.15 0.09 0.06 0.04 0.01 0.02 0.04 0.01 0.00 0.00 0.00 0.00 0.00 0.00 0.01 0.05 0.06 0.04 0.06 0.06 0.03 0.01 0.01 0.03 0.06 0.09 0.09 0.14 0.17 0.15 0.17 0.15 0.13 0.12
0.63 0.66 0.45 0.75 0.74 0.36 0.31 0.07 0.03 0.03 0.04 0.06 0.07 0.07 0.05 0.05 0.04 0.08 0.07 0.10 0.11 0.07 0.01 0.00 0.00 0.00 0.00 0.00 0.00 0.00 0.00 0.00 0.00 0.00 0.00 0.03 0.02 0.01 0.02 0.02 0.01 0.00 0.02 0.02 0.03 0.02 0.03 0.10 0.14 0.12 0.11 0.13 0.09 0.04
0.76 0.51 0.77 0.90 0.43 0.19 0.10 0.04 0.02 0.03 0.07 0.09 0.04 0.03 0.03 0.04 0.11 0.17 0.25 0.11 0.02 0.01 0.01 0.00 0.00 0.00 0.00 0.00 0.00 0.00 0.00 0.00 0.00 0.00 0.00 0.00 0.00 0.00 0.02 0.02 0.01 0.00 0.00 0.00 0.01 0.02 0.01 0.04 0.06 0.05 0.04 0.04 0.02 0.01
0.68 0.69 0.68 0.40 0.10 0.04 0.02 0.01 0.02 0.05 0.08 0.04 0.01 0.02 0.05 0.07 0.07 0.04 0.07 0.05 0.00 0.01 0.01 0.00 0.00 0.00 0.00 0.00 0.00 0.00 0.00 0.00 0.00 0.00 0.00 0.00 0.00 0.00 0.03 0.02 0.00 0.00 0.00 0.00 0.00 0.00 0.02 0.03 0.04 0.02 0.00 0.00 0.00 0.00
0.64 0.65 0.32 0.10 0.03 0.01 0.02 0.03 0.05 0.08 0.05 0.03 0.01 0.04 0.07 0.04 0.03 0.00 0.00 0.00 0.01 0.03 0.01 0.00 0.00 0.00 0.00 0.00 0.00 0.00 0.00 0.00 0.00 0.00 0.00 0.00 0.00 0.00 0.02 0.01 0.00 0.00 0.00 0.01 0.01 0.01 0.00 0.01 0.00 0.00 0.00 0.00 0.00 0.00
0.58 0.35 0.13 0.03 0.02 0.02 0.03 0.05 0.07 0.08 0.04 0.03 0.03 0.06 0.07 0.06 0.01 0.00 0.00 0.00 0.00 0.01 0.01 0.00 0.00 0.01 0.00 0.00 0.00 0.00 0.00 0.00 0.00 0.00 0.00 0.00 0.01 0.02 0.01 0.00 0.00 0.00 0.01 0.02 0.02 0.00 0.01 0.01 0.01 0.00 0.00 0.00 0.00 0.00
0.36 0.19 0.06 0.02 0.01 0.02 0.04 0.05 0.09 0.05 0.03 0.01 0.04 0.07 0.09 0.01 0.00 0.00 0.01 0.01 0.00 0.00 0.00 0.01 0.00 0.00 0.00 0.01 0.01 0.01 0.00 0.01 0.01 0.01 0.00 0.00 0.03 0.02 0.01 0.00 0.00 0.01 0.01 0.02 0.02 0.02 0.01 0.01 0.00 0.00 0.00 0.00 0.00 0.00
0.19 0.13 0.02 0.02 0.02 0.03 0.04 0.05 0.06 0.02 0.00 0.02 0.04 0.02 0.01 0.01 0.00 0.00 0.00 0.00 0.00 0.00 0.00 0.01 0.00 0.00 0.00 0.01 0.01 0.01 0.02 0.05 0.05 0.07 0.02 0.04 0.03 0.02 0.03 0.02 0.02 0.01 0.03 0.03 0.03 0.02 0.02 0.00 0.00 0.00 0.00 0.00 0.00 0.00
0.20 0.06 0.03 0.03 0.03 0.03 0.03 0.04 0.01 0.00 0.00 0.00 0.00 0.01 0.02 0.01 0.00 0.00 0.00 0.00 0.00 0.00 0.00 0.01 0.00 0.00 0.00 0.00 0.01 0.00 0.05 0.15 0.30 0.14 0.05 0.12 0.07 0.03 0.03 0.03 0.02 0.01 0.02 0.04 0.04 0.02 0.01 0.00 0.00 0.00 0.00 0.00 0.00 0.00
0.10 0.03 0.04 0.03 0.03 0.02 0.03 0.01 0.00 0.00 0.00 0.01 0.01 0.01 0.01 0.02 0.01 0.00 0.00 0.00 0.01 0.00 0.01 0.01 0.01 0.01 0.01 0.01 0.01 0.01 0.13 0.21 0.24 0.36 0.15 0.10 0.03 0.04 0.03 0.02 0.01 0.00 0.00 0.03 0.03 0.01 0.00 0.00 0.00 0.01 0.01 0.00 0.00 0.00
0.04 0.04 0.05 0.04 0.02 0.02 0.01 0.01 0.00 0.00 0.00 0.00 0.00 0.01 0.01 0.01 0.01 0.01 0.01 0.01 0.01 0.01 0.02 0.01 0.01 0.01 0.02 0.01 0.00 0.01 0.01 0.01 0.05 0.13 0.18 0.02 0.02 0.02 0.02 0.01 0.00 0.02 0.03 0.04 0.03 0.01 0.00 0.01 0.03 0.04 0.02 0.01 0.00 0.00
0.03 0.09 0.10 0.05 0.06 0.05 0.03 0.01 0.00 0.00 0.00 0.00 0.02 0.02 0.02 0.04 0.05 0.05 0.03 0.02 0.00 0.02 0.01 0.01 0.01 0.01 0.00 0.00 0.00 0.01 0.03 0.07 0.15 0.25 0.09 0.00 0.01 0.02 0.03 0.02 0.02 0.03 0.03 0.03 0.02 0.01 0.01 0.01 0.01 0.04 0.04 0.01 0.00 0.00
0.07 0.24 0.13 0.10 0.08 0.04 0.01 0.00 0.00 0.00 0.00 0.01 0.07 0.11 0.07 0.07 0.09 0.06 0.04 0.02 0.01 0.03 0.03 0.01 0.01 0.01 0.00 0.00 0.01 0.02 0.08 0.15 0.09 0.01 0.01 0.01 0.01 0.03 0.02 0.03 0.02 0.02 0.02 0.02 0.02 0.03 0.03 0.02 0.01 0.02 0.02 0.01 0.00 0.00
0.20 0.23 0.13 0.09 0.04 0.01 0.00 0.00 0.00 0.00 0.00 0.03 0.06 0.11 0.12 0.05 0.08 0.06 0.04 0.02 0.03 0.07 0.03 0.01 0.00 0.01 0.02 0.01 0.02 0.01 0.04 0.04 0.01 0.01 0.01 0.00 0.01 0.03 0.06 0.06 0.05 0.04 0.03 0.03 0.03 0.04 0.05 0.03 0.02 0.01 0.00 0.00 0.00 0.00
0.09 0.05 0.08 0.04 0.01 0.00 0.00 0.00 0.00 0.00 0.03 0.09 0.09 0.07 0.02 0.03 0.04 0.01 0.00 0.00 0.05 0.03 0.01 0.03 0.08 0.04 0.03 0.03 0.09 0.01 0.01 0.01 0.01 0.01 0.01 0.01 0.01 0.02 0.04 0.04 0.05 0.04 0.03 0.02 0.03 0.02 0.03 0.02 0.01 0.00 0.00 0.00 0.00 0.00
0.04 0.05 0.01 0.00 0.00 0.00 0.00 0.00 0.01 0.01 0.05 0.04 0.04 0.02 0.01 0.01 0.01 0.01 0.01 0.03 0.00 0.01 0.02 0.01 0.01 0.03 0.03 0.04 0.02 0.00 0.01 0.00 0.01 0.02 0.02 0.01 0.00 0.00 0.01 0.01 0.01 0.02 0.02 0.02 0.01 0.01 0.01 0.00 0.00 0.00 0.00 0.00 0.00 0.00
0.05 0.02 0.00 0.00 0.00 0.00 0.00 0.01 0.01 0.02 0.03 0.02 0.02 0.01 0.01 0.02 0.01 0.01 0.01 0.02 0.00 0.01 0.01 0.01 0.01 0.02 0.02 0.01 0.00 0.00 0.00 0.00 0.00 0.02 0.03 0.03 0.01 0.00 0.00 0.00 0.00 0.00 0.00 0.01 0.01 0.00 0.00 0.00 0.00 0.00 0.00 0.00 0.00 0.00
0.17 0.08 0.00 0.00 0.00 0.00 0.04 0.02 0.00 0.01 0.01 0.01 0.00 0.00 0.00 0.01 0.00 0.01 0.01 0.01 0.02 0.01 0.02 0.01 0.00 0.01 0.01 0.00 0.00 0.00 0.00 0.00 0.00 0.00 0.01 0.02 0.01 0.00 0.00 0.00 0.00 0.00 0.00 0.00 0.00 0.00 0.00 0.00 0.00 0.00 0.00 0.01 0.00 0.00
0.13 0.02 0.00 0.00 0.01 0.01 0.08 0.02 0.00 0.00 0.01 0.01 0.00 0.01 0.01 0.01 0.01 0.01 0.03 0.03 0.01 0.00 0.01 0.00 0.00 0.00 0.00 0.00 0.00 0.00 0.00 0.00 0.00 0.00 0.00 0.00 0.01 0.01 0.01 0.01 0.00 0.00 0.00 0.00 0.00 0.00 0.00 0.00 0.00 0.00 0.01 0.01 0.00 0.00
0.00 0.00 0.00 0.00 0.02 0.02 0.07 0.02 0.01 0.01 0.01 0.01 0.01 0.01 0.01 0.01 0.01 0.01 0.02 0.01 0.00 0.00 0.00 0.00 0.00 0.00 0.00 0.00 0.00 0.00 0.00 0.00 0.00 0.00 0.00 0.00 0.00 0.00 0.00 0.00 0.00 0.00 0.00 0.00 0.00 0.00 0.01 0.00 0.00 0.01 0.00 0.00 0.00 0.01
0.00 0.00 0.00 0.01 0.02 0.02 0.05 0.05 0.00 0.01 0.01 0.00 0.01 0.01 0.01 0.01 0.01 0.01 0.01 0.02 0.01 0.00 0.00 0.00 0.00 0.00 0.00 0.00 0.00 0.00 0.00 0.00 0.00 0.00 0.00 0.00 0.00 0.01 0.00 0.00 0.00 0.00 0.00 0.00 0.00 0.02 0.01 0.01 0.01 0.00 0.01 0.01 0.01 0.01
0.00 0.00 0.04 0.08 0.06 0.01 0.02 0.02 0.01 0.01 0.00 0.00 0.01 0.01 0.01 0.01 0.00 0.00 0.01 0.01 0.00 0.00 0.00 0.00 0.01 0.01 0.01 0.01 0.00 0.00 0.00 0.00 0.00 0.00 0.00 0.00 0.00 0.02 0.02 0.01 0.01 0.00 0.01 0.01 0.02 0.03 0.03 0.02 0.02 0.01 0.01 0.01 0.00 0.00
0.03 0.03 0.01 0.02 0.02 0.01 0.02 0.01 0.01 0.00 0.00 0.00 0.00 0.01 0.01 0.00 0.01 0.01 0.02 0.01 0.00 0.00 0.01 0.01 0.01 0.01 0.01 0.01 0.01 0.00 0.00 0.00 0.00 0.00 0.01 0.00 0.00 0.00 0.01 0.02 0.03 0.04 0.01 0.01 0.01 0.02 0.03 0.02 0.02 0.01 0.01 0.01 0.00 0.00
0.03 0.06 0.02 0.01 0.01 0.01 0.01 0.01 0.01 0.01 0.00 0.00 0.01 0.01 0.01 0.01 0.02 0.01 0.01 0.00 0.00 0.00 0.00 0.00 0.00 0.01 0.02 0.01 0.01 0.01 0.00 0.00 0.00 0.00 0.00 0.00 0.00 0.00 0.00 0.00 0.01 0.00 0.01 0.02 0.01 0.01 0.01 0.02 0.02 0.02 0.01 0.01 0.00 0.00
0.01 0.00 0.01 0.02 0.02 0.03 0.05 0.03 0.01 0.01 0.01 0.00 0.00 0.01 0.00 0.01 0.08 0.02 0.02 0.01 0.00 0.00 0.00 0.00 0.00 0.00 0.00 0.00 0.00 0.01 0.01 0.01 0.00 0.01 0.01 0.02 0.03 0.02 0.01 0.01 0.00 0.00 0.01 0.02 0.02 0.01 0.01 0.01 0.01 0.01 0.00 0.00 0.01 0.00
0.01 0.00 0.00 0.01 0.04 0.03 0.02 0.04 0.07 0.04 0.01 0.01 0.01 0.02 0.02 0.00 0.01 0.00 0.00 0.01 0.01 0.01 0.01 0.01 0.02 0.01 0.02 0.04 0.04 0.02 0.01 0.00 0.01 0.02 0.02 0.03 0.04 0.06 0.03 0.02 0.02 0.01 0.02 0.05 0.05 0.02 0.01 0.01 0.01 0.00 0.00 0.00 0.00 0.00
0.00 0.00 0.00 0.00 0.00 0.02 0.03 0.03 0.04 0.02 0.00 0.00 0.00 0.00 0.00 0.00 0.00 0.00 0.01 0.01 0.01 0.01 0.01 0.00 0.01 0.01 0.02 0.02 0.04 0.06 0.05 0.02 0.02 0.01 0.02 0.01 0.01 0.02 0.04 0.03 0.02 0.02 0.02 0.02 0.05 0.07 0.03 0.02 0.02 0.01 0.00 0.00 0.00 0.00
0.01 0.01 0.00 0.01 0.01 0.02 0.01 0.01 0.00 0.00 0.00 0.00 0.00 0.00 0.02 0.01 0.00 0.00 0.00 0.01 0.01 0.01 0.01 0.02 0.03 0.02 0.01 0.01 0.01 0.01 0.04 0.05 0.03 0.02 0.02 0.00 0.00 0.01 0.03 0.02 0.02 0.01 0.01 0.00 0.00 0.00 0.01 0.01 0.01 0.00 0.00 0.00 0.00 0.00
0.05 0.06 0.03 0.02 0.02 0.02 0.01 0.01 0.01 0.00 0.00 0.00 0.00 0.01 0.00 0.00 0.00 0.01 0.01 0.02 0.03 0.03 0.03 0.02 0.02 0.02 0.01 0.02 0.02 0.02 0.01 0.03 0.03 0.01 0.00 0.00 0.01 0.02 0.03 0.03 0.02 0.01 0.01 0.01 0.01 0.01 0.00 0.00 0.00 0.00 0.00 0.00 0.00 0.00
0.16 0.17 0.15 0.12 0.07 0.04 0.04 0.09 0.11 0.05 0.01 0.01 0.01 0.01 0.01 0.00 0.01 0.02 0.02 0.03 0.03 0.04 0.05 0.06 0.06 0.06 0.05 0.07 0.07 0.06 0.05 0.05 0.04 0.02 0.01 0.01 0.01 0.02 0.02 0.02 0.01 0.01 0.01 0.01 0.01 0.01 0.00 0.00 0.00 0.00 0.00 0.00 0.00 0.00

GFSWCAN_prec_precacc24_117.txt.gz
Total_Precipitation_Accumulation
0.32 0.47 0.47 0.56 0.37 0.47 0.48 0.46 0.20 0.15 0.09 0.09 0.10 0.10 0.14 0.16 0.19 0.31 0.21 0.08 0.23 0.56 0.34 0.27 0.07 0.13 0.11 0.08 0.08 0.04 0.08 0.13 0.20 0.18 0.05 0.04 0.04 0.01 0.01 0.03 0.06 0.07 0.04 0.07 0.05 0.06 0.08 0.01 0.03 0.11 0.21 0.19 0.24 0.35
0.37 0.58 0.47 0.40 0.24 0.40 0.51 0.41 0.18 0.11 0.08 0.07 0.08 0.10 0.17 0.23 0.18 0.23 0.28 0.12 0.18 0.39 0.22 0.26 0.17 0.10 0.06 0.07 0.01 0.00 0.02 0.01 0.04 0.04 0.01 0.02 0.03 0.02 0.02 0.05 0.03 0.05 0.08 0.10 0.10 0.10 0.08 0.05 0.12 0.15 0.19 0.22 0.30 0.30
0.39 0.67 0.47 0.31 0.34 0.38 0.43 0.25 0.18 0.09 0.07 0.07 0.09 0.14 0.21 0.27 0.17 0.18 0.23 0.20 0.17 0.11 0.10 0.19 0.20 0.10 0.05 0.04 0.01 0.00 0.00 0.00 0.00 0.01 0.02 0.03 0.03 0.02 0.04 0.04 0.01 0.03 0.05 0.05 0.07 0.09 0.08 0.11 0.11 0.12 0.16 0.18 0.21 0.18
0.44 0.73 0.44 0.37 0.58 0.49 0.45 0.14 0.07 0.05 0.06 0.08 0.11 0.14 0.19 0.30 0.14 0.16 0.18 0.16 0.18 0.09 0.07 0.13 0.06 0.12 0.09 0.02 0.01 0.00 0.00 0.00 0.00 0.00 0.01 0.05 0.06 0.05 0.05 0.02 0.03 0.01 0.01 0.02 0.05 0.07 0.07 0.12 0.13 0.12 0.14 0.11 0.11 0.11
0.61 0.64 0.43 0.75 0.75 0.37 0.33 0.07 0.03 0.03 0.04 0.08 0.09 0.13 0.20 0.30 0.12 0.11 0.12 0.13 0.12 0.07 0.01 0.08 0.07 0.09 0.06 0.00 0.01 0.00 0.00 0.00 0.00 0.00 0.00 0.03 0.02 0.01 0.01 0.01 0.01 0.00 0.01 0.01 0.02 0.00 0.02 0.08 0.12 0.10 0.09 0.10 0.07 0.03
0.73 0.49 0.77 1.07 0.70 0.39 0.14 0.04 0.03 0.03 0.07 0.08 0.07 0.12 0.24 0.20 0.16 0.19 0.31 0.13 0.04 0.01 0.01 0.01 0.02 0.02 0.00 0.00 0.00 0.00 0.00 0.00 0.00 0.00 0.00 0.00 0.00 0.01 0.02 0.02 0.01 0.00 0.00 0.00 0.00 0.01 0.00 0.03 0.05 0.04 0.03 0.03 0.01 0.00
0.63 0.83 0.93 0.70 0.36 0.12 0.05 0.02 0.03 0.04 0.08 0.05 0.08 0.12 0.16 0.10 0.08 0.04 0.08 0.06 0.00 0.01 0.01 0.00 0.00 0.00 0.00 0.00 0.00 0.00 0.00 0.00 0.00 0.00 0.00 0.00 0.00 0.00 0.02 0.02 0.00 0.00 0.00 0.00 0.00 0.00 0.02 0.02 0.03 0.01 0.00 0.00 0.00 0.00
0.78 0.74 0.35 0.16 0.08 0.03 0.03 0.04 0.06 0.08 0.07 0.07 0.06 0.07 0.09 0.05 0.04 0.00 0.00 0.00 0.01 0.03 0.01 0.00 0.00 0.00 0.00 0.00 0.00 0.00 0.00 0.00 0.00 0.00 0.00 0.00 0.00 0.00 0.01 0.01 0.00 0.00 0.00 0.01 0.01 0.00 0.00 0.01 0.00 0.00 0.00 0.00 0.00 0.00
0.63 0.33 0.12 0.04 0.03 0.03 0.05 0.06 0.08 0.08 0.04 0.03 0.07 0.14 0.14 0.08 0.04 0.02 0.00 0.00 0.00 0.01 0.01 0.00 0.00 0.01 0.00 0.00 0.00 0.00 0.00 0.00 0.00 0.00 0.00 0.00 0.01 0.01 0.01 0.00 0.00 0.00 0.00 0.01 0.01 0.00 0.01 0.01 0.00 0.00 0.00 0.00 0.00 0.00
0.33 0.18 0.07 0.03 0.02 0.03 0.04 0.06 0.08 0.05 0.03 0.05 0.10 0.10 0.13 0.03 0.01 0.00 0.01 0.01 0.00 0.00 0.00 0.01 0.00 0.00 0.00 0.01 0.01 0.01 0.00 0.01 0.01 0.01 0.00 0.00 0.02 0.01 0.00 0.00 0.00 0.00 0.00 0.00 0.00 0.01 0.01 0.00 0.00 0.00 0.00 0.00 0.00 0.00
0.18 0.13 0.03 0.02 0.03 0.03 0.04 0.05 0.07 0.03 0.04 0.04 0.04 0.02 0.03 0.02 0.00 0.00 0.00 0.00 0.00 0.00 0.00 0.01 0.00 0.00 0.00 0.01 0.01 0.01 0.01 0.02 0.03 0.06 0.01 0.03 0.03 0.01 0.02 0.01 0.01 0.00 0.00 0.00 0.00 0.00 0.00 0.00 0.00 0.00 0.00 0.00 0.00 0.00
0.20 0.07 0.03 0.03 0.04 0.03 0.03 0.04 0.01 0.01 0.02 0.00 0.00 0.00 0.01 0.01 0.00 0.00 0.00 0.00 0.00 0.00 0.00 0.01 0.00 0.00 0.00 0.00 0.01 0.00 0.03 0.09 0.20 0.08 0.03 0.11 0.06 0.02 0.03 0.03 0.02 0.01 0.01 0.02 0.02 0.01 0.00 0.00 0.00 0.00 0.00 0.00 0.00 0.00
0.11 0.04 0.04 0.02 0.03 0.02 0.02 0.00 0.00 0.01 0.00 0.00 0.00 0.00 0.00 0.01 0.00 0.00 0.00 0.00 0.01 0.00 0.01 0.01 0.01 0.01 0.01 0.01 0.01 0.00 0.06 0.18 0.21 0.29 0.13 0.10 0.03 0.03 0.03 0.02 0.01 0.00 0.00 0.03 0.03 0.01 0.00 0.00 0.00 0.01 0.01 0.00 0.00 0.00
0.04 0.03 0.02 0.03 0.02 0.02 0.00 0.00 0.00 0.00 0.00 0.00 0.00 0.00 0.01 0.01 0.01 0.01 0.01 0.01 0.01 0.01 0.02 0.01 0.01 0.01 0.02 0.01 0.00 0.01 0.01 0.01 0.04 0.12 0.18 0.01 0.01 0.02 0.02 0.01 0.00 0.02 0.03 0.04 0.03 0.01 0.00 0.01 0.04 0.06 0.04 0.01 0.00 0.00
0.02 0.03 0.03 0.03 0.05 0.03 0.01 0.00 0.00 0.00 0.00 0.00 0.00 0.01 0.02 0.04 0.06 0.05 0.03 0.02 0.00 0.02 0.01 0.01 0.01 0.01 0.00 0.00 0.00 0.01 0.01 0.02 0.08 0.20 0.09 0.00 0.01 0.02 0.03 0.02 0.02 0.03 0.03 0.03 0.02 0.01 0.01 0.02 0.04 0.08 0.09 0.05 0.03 0.00
0.04 0.08 0.05 0.08 0.07 0.01 0.00 0.00 0.00 0.00 0.00 0.00 0.04 0.09 0.07 0.07 0.10 0.07 0.04 0.02 0.01 0.03 0.03 0.01 0.01 0.01 0.00 0.00 0.01 0.01 0.04 0.10 0.08 0.01 0.01 0.01 0.02 0.03 0.02 0.03 0.02 0.02 0.02 0.02 0.02 0.04 0.07 0.07 0.05 0.07 0.08 0.07 0.05 0.01
0.04 0.08 0.11 0.08 0.02 0.00 0.00 0.00 0.00 0.00 0.00 0.02 0.07 0.12 0.12 0.06 0.11 0.09 0.05 0.02 0.03 0.07 0.03 0.01 0.00 0.00 0.01 0.01 0.01 0.01 0.04 0.04 0.01 0.01 0.01 0.00 0.01 0.03 0.06 0.06 0.05 0.04 0.04 0.04 0.04 0.08 0.11 0.10 0.07 0.04 0.04 0.05 0.04 0.01
0.06 0.05 0.08 0.03 0.00 0.00 0.00 0.00 0.00 0.00 0.03 0.10 0.10 0.08 0.02 0.05 0.06 0.03 0.01 0.00 0.05 0.03 0.01 0.01 0.03 0.02 0.02 0.03 0.09 0.01 0.01 0.01 0.01 0.01 0.01 0.01 0.01 0.03 0.05 0.05 0.05 0.05 0.03 0.03 0.04 0.04 0.06 0.06 0.04 0.04 0.03 0.02 0.01 0.00
0.04 0.05 0.01 0.00 0.00 0.00 0.00 0.00 0.00 0.01 0.06 0.05 0.05 0.03 0.01 0.01 0.01 0.01 0.01 0.03 0.00 0.01 0.01 0.01 0.01 0.02 0.03 0.04 0.02 0.00 0.01 0.00 0.01 0.02 0.02 0.02 0.01 0.01 0.01 0.01 0.02 0.03 0.03 0.03 0.02 0.03 0.03 0.03 0.03 0.03 0.02 0.01 0.00 0.00
0.05 0.02 0.00 0.00 0.00 0.00 0.00 0.00 0.00 0.01 0.03 0.02 0.02 0.01 0.01 0.02 0.01 0.01 0.01 0.02 0.00 0.00 0.00 0.01 0.01 0.02 0.02 0.01 0.00 0.00 0.00 0.00 0.00 0.01 0.03 0.03 0.01 0.01 0.01 0.00 0.00 0.01 0.02 0.03 0.03 0.03 0.03 0.02 0.02 0.02 0.02 0.01 0.00 0.00
0.13 0.05 0.00 0.00 0.00 0.00 0.01 0.01 0.00 0.01 0.01 0.01 0.00 0.00 0.00 0.01 0.00 0.01 0.01 0.01 0.01 0.00 0.02 0.01 0.00 0.01 0.01 0.00 0.00 0.00 0.00 0.00 0.00 0.00 0.01 0.02 0.01 0.00 0.01 0.00 0.00 0.00 0.00 0.01 0.01 0.01 0.01 0.01 0.01 0.00 0.00 0.01 0.00 0.00
0.06 0.01 0.00 0.00 0.00 0.00 0.05 0.01 0.00 0.00 0.01 0.01 0.00 0.01 0.01 0.01 0.01 0.01 0.02 0.02 0.01 0.00 0.01 0.00 0.00 0.00 0.00 0.00 0.00 0.00 0.00 0.00 0.00 0.00 0.00 0.00 0.01 0.01 0.01 0.01 0.00 0.00 0.00 0.00 0.00 0.00 0.01 0.00 0.00 0.00 0.01 0.01 0.00 0.00
0.00 0.00 0.00 0.00 0.00 0.01 0.07 0.02 0.01 0.01 0.01 0.01 0.01 0.01 0.01 0.01 0.01 0.01 0.01 0.00 0.00 0.00 0.00 0.00 0.00 0.00 0.00 0.00 0.00 0.00 0.00 0.00 0.00 0.00 0.00 0.00 0.00 0.00 0.00 0.00 0.00 0.00 0.00 0.00 0.00 0.00 0.01 0.00 0.00 0.01 0.00 0.00 0.00 0.01
0.00 0.00 0.00 0.00 0.00 0.01 0.05 0.05 0.00 0.01 0.01 0.01 0.01 0.01 0.00 0.01 0.01 0.01 0.01 0.02 0.01 0.00 0.00 0.00 0.00 0.00 0.00 0.00 0.00 0.00 0.00 0.00 0.00 0.00 0.00 0.00 0.00 0.00 0.00 0.00 0.00 0.00 0.00 0.00 0.00 0.02 0.01 0.01 0.01 0.00 0.01 0.01 0.01 0.01
0.00 0.00 0.00 0.02 0.02 0.01 0.01 0.02 0.01 0.01 0.00 0.01 0.00 0.01 0.01 0.01 0.00 0.00 0.01 0.02 0.00 0.00 0.00 0.00 0.01 0.01 0.01 0.01 0.00 0.00 0.00 0.00 0.00 0.00 0.00 0.00 0.00 0.01 0.02 0.01 0.01 0.00 0.01 0.01 0.02 0.03 0.03 0.02 0.02 0.01 0.01 0.01 0.01 0.01
0.00 0.00 0.00 0.02 0.02 0.01 0.02 0.01 0.01 0.00 0.00 0.00 0.00 0.00 0.01 0.00 0.01 0.01 0.02 0.01 0.00 0.00 0.01 0.01 0.01 0.01 0.01 0.01 0.01 0.00 0.00 0.00 0.00 0.00 0.00 0.00 0.00 0.00 0.01 0.02 0.04 0.05 0.01 0.01 0.01 0.02 0.03 0.02 0.03 0.02 0.03 0.02 0.01 0.01
0.00 0.03 0.01 0.01 0.01 0.01 0.01 0.01 0.01 0.01 0.00 0.00 0.00 0.01 0.01 0.00 0.02 0.01 0.01 0.00 0.00 0.00 0.00 0.00 0.00 0.01 0.02 0.01 0.01 0.00 0.00 0.00 0.00 0.00 0.00 0.00 0.00 0.00 0.00 0.00 0.01 0.00 0.01 0.02 0.01 0.01 0.01 0.02 0.03 0.03 0.03 0.03 0.01 0.01
0.00 0.00 0.01 0.02 0.02 0.03 0.05 0.03 0.01 0.01 0.01 0.00 0.00 0.01 0.00 0.01 0.08 0.02 0.02 0.01 0.00 0.00 0.00 0.00 0.00 0.00 0.00 0.00 0.00 0.01 0.01 0.01 0.00 0.01 0.01 0.03 0.03 0.02 0.01 0.01 0.00 0.00 0.01 0.02 0.02 0.01 0.01 0.01 0.02 0.02 0.02 0.02 0.02 0.01
0.00 0.00 0.00 0.01 0.04 0.03 0.02 0.04 0.07 0.04 0.02 0.01 0.01 0.02 0.02 0.01 0.01 0.00 0.00 0.01 0.01 0.01 0.01 0.00 0.01 0.01 0.01 0.02 0.02 0.02 0.01 0.01 0.01 0.02 0.02 0.02 0.04 0.06 0.03 0.02 0.02 0.01 0.02 0.06 0.06 0.03 0.02 0.02 0.01 0.01 0.01 0.01 0.01 0.01
0.00 0.00 0.00 0.00 0.00 0.02 0.03 0.03 0.04 0.02 0.00 0.00 0.00 0.01 0.01 0.01 0.01 0.00 0.01 0.01 0.01 0.01 0.01 0.00 0.01 0.01 0.01 0.02 0.03 0.05 0.03 0.02 0.01 0.01 0.01 0.01 0.01 0.02 0.05 0.03 0.02 0.03 0.03 0.04 0.07 0.11 0.06 0.04 0.05 0.04 0.02 0.02 0.01 0.01
0.01 0.01 0.00 0.01 0.01 0.02 0.01 0.01 0.01 0.00 0.00 0.00 0.01 0.01 0.02 0.01 0.01 0.01 0.00 0.01 0.01 0.01 0.01 0.02 0.02 0.02 0.01 0.01 0.01 0.01 0.03 0.03 0.02 0.01 0.02 0.00 0.00 0.01 0.03 0.02 0.02 0.01 0.01 0.00 0.00 0.01 0.01 0.02 0.01 0.01 0.01 0.01 0.00 0.00
0.04 0.04 0.02 0.02 0.02 0.02 0.01 0.01 0.01 0.00 0.00 0.00 0.00 0.01 0.01 0.00 0.00 0.01 0.01 0.01 0.03 0.03 0.03 0.02 0.02 0.01 0.01 0.02 0.02 0.02 0.01 0.01 0.02 0.01 0.00 0.00 0.01 0.02 0.03 0.03 0.02 0.01 0.01 0.01 0.01 0.01 0.01 0.01 0.01 0.00 0.00 0.00 0.00 0.00
0.12 0.12 0.12 0.11 0.06 0.04 0.04 0.09 0.10 0.05 0.01 0.01 0.01 0.01 0.01 0.00 0.01 0.02 0.02 0.02 0.03 0.04 0.05 0.06 0.06 0.05 0.04 0.06 0.06 0.06 0.04 0.04 0.04 0.02 0.01 0.01 0.01 0.02 0.02 0.02 0.02 0.01 0.01 0.01 0.02 0.02 0.01 0.01 0.01 0.00 0.00 0.00 0.00 0.00

GFSWCAN_prec_precacc24_123.txt.gz
Total_Precipitation_Accumulation
0.14 0.11 0.15 0.46 0.36 0.45 0.45 0.44 0.20 0.16 0.10 0.10 0.11 0.12 0.17 0.20 0.26 0.37 0.21 0.09 0.25 0.63 0.36 0.28 0.08 0.15 0.14 0.09 0.09 0.05 0.13 0.17 0.29 0.33 0.24 0.18 0.12 0.03 0.02 0.02 0.03 0.04 0.03 0.04 0.04 0.05 0.06 0.00 0.00 0.02 0.05 0.03 0.03 0.05
0.08 0.07 0.19 0.36 0.22 0.44 0.58 0.44 0.19 0.12 0.08 0.07 0.09 0.12 0.19 0.29 0.27 0.31 0.29 0.13 0.22 0.46 0.27 0.27 0.17 0.10 0.08 0.09 0.04 0.02 0.04 0.03 0.07 0.08 0.13 0.14 0.16 0.08 0.04 0.04 0.01 0.03 0.04 0.05 0.04 0.05 0.02 0.00 0.00 0.01 0.03 0.05 0.08 0.10
0.03 0.07 0.30 0.28 0.31 0.38 0.51 0.38 0.36 0.16 0.10 0.08 0.10 0.14 0.22 0.30 0.25 0.26 0.24 0.24 0.26 0.26 0.17 0.21 0.21 0.10 0.05 0.04 0.02 0.06 0.01 0.01 0.02 0.04 0.06 0.11 0.12 0.04 0.05 0.04 0.01 0.00 0.01 0.01 0.03 0.03 0.01 0.01 0.01 0.02 0.04 0.06 0.07 0.08
0.01 0.18 0.35 0.34 0.57 0.48 0.42 0.17 0.32 0.28 0.12 0.11 0.13 0.15 0.20 0.31 0.17 0.25 0.22 0.25 0.27 0.17 0.12 0.14 0.07 0.12 0.09 0.02 0.01 0.01 0.00 0.01 0.01 0.02 0.07 0.13 0.12 0.07 0.06 0.02 0.04 0.00 0.00 0.00 0.04 0.03 0.02 0.03 0.02 0.03 0.04 0.04 0.06 0.07
0.13 0.32 0.38 0.73 0.75 0.37 0.31 0.07 0.08 0.28 0.14 0.18 0.15 0.15 0.21 0.31 0.15 0.22 0.21 0.21 0.29 0.16 0.09 0.10 0.11 0.14 0.09 0.04 0.04 0.08 0.02 0.01 0.06 0.05 0.12 0.17 0.08 0.04 0.03 0.02 0.01 0.00 0.01 0.01 0.02 0.00 0.01 0.03 0.04 0.04 0.06 0.06 0.05 0.02
0.38 0.36 0.74 1.09 0.71 0.39 0.14 0.04 0.04 0.08 0.16 0.19 0.16 0.16 0.27 0.26 0.26 0.37 0.66 0.34 0.18 0.24 0.17 0.08 0.14 0.14 0.06 0.04 0.09 0.10 0.10 0.02 0.09 0.16 0.09 0.08 0.02 0.01 0.02 0.02 0.01 0.00 0.00 0.00 0.00 0.00 0.00 0.01 0.03 0.02 0.02 0.02 0.01 0.00
0.54 0.84 1.18 1.03 0.52 0.15 0.05 0.02 0.03 0.04 0.16 0.14 0.16 0.18 0.27 0.26 0.21 0.14 0.18 0.09 0.07 0.19 0.32 0.18 0.18 0.25 0.25 0.17 0.16 0.08 0.13 0.07 0.04 0.07 0.03 0.00 0.00 0.01 0.06 0.04 0.00 0.00 0.00 0.00 0.00 0.00 0.02 0.01 0.02 0.00 0.00 0.00 0.00 0.00
1.04 1.16 0.86 0.40 0.15 0.05 0.03 0.04 0.05 0.06 0.09 0.14 0.16 0.23 0.32 0.27 0.21 0.06 0.01 0.02 0.11 0.24 0.16 0.06 0.12 0.22 0.18 0.11 0.09 0.02 0.03 0.03 0.01 0.00 0.00 0.00 0.00 0.01 0.01 0.00 0.00 0.00 0.00 0.00 0.00 0.00 0.00 0.00 0.00 0.00 0.00 0.00 0.00 0.00
1.01 0.72 0.37 0.13 0.06 0.04 0.06 0.06 0.06 0.07 0.12 0.23 0.34 0.50 0.51 0.35 0.21 0.10 0.03 0.13 0.13 0.15 0.07 0.02 0.07 0.08 0.05 0.03 0.01 0.00 0.00 0.00 0.00 0.00 0.00 0.00 0.01 0.00 0.00 0.00 0.00 0.00 0.00 0.01 0.00 0.00 0.00 0.00 0.00 0.00 0.00 0.00 0.00 0.00
0.54 0.30 0.17 0.09 0.06 0.06 0.06 0.06 0.07 0.12 0.29 0.35 0.36 0.36 0.38 0.19 0.13 0.14 0.26 0.24 0.15 0.10 0.01 0.01 0.00 0.01 0.01 0.01 0.01 0.01 0.00 0.01 0.01 0.01 0.00 0.00 0.02 0.00 0.00 0.00 0.00 0.00 0.00 0.00 0.00 0.01 0.00 0.00 0.00 0.00 0.00 0.00 0.00 0.00
0.23 0.18 0.09 0.07 0.07 0.07 0.07 0.07 0.11 0.18 0.19 0.15 0.10 0.11 0.26 0.35 0.15 0.10 0.10 0.07 0.03 0.00 0.00 0.01 0.00 0.00 0.00 0.01 0.01 0.01 0.01 0.01 0.02 0.04 0.01 0.02 0.03 0.01 0.00 0.00 0.00 0.00 0.00 0.00 0.00 0.00 0.00 0.00 0.00 0.00 0.00 0.00 0.00 0.00
0.20 0.13 0.12 0.12 0.11 0.12 0.12 0.09 0.04 0.03 0.04 0.00 0.01 0.11 0.20 0.11 0.02 0.00 0.00 0.00 0.00 0.00 0.00 0.01 0.00 0.00 0.00 0.00 0.01 0.00 0.01 0.02 0.09 0.04 0.02 0.07 0.05 0.01 0.01 0.01 0.01 0.00 0.00 0.00 0.00 0.00 0.00 0.00 0.00 0.00 0.00 0.00 0.00 0.00
0.08 0.07 0.09 0.09 0.12 0.09 0.04 0.02 0.02 0.01 0.00 0.00 0.00 0.01 0.02 0.00 0.00 0.00 0.00 0.00 0.01 0.00 0.01 0.01 0.01 0.01 0.01 0.01 0.01 0.00 0.01 0.06 0.06 0.10 0.12 0.10 0.02 0.01 0.01 0.01 0.01 0.00 0.00 0.01 0.01 0.00 0.00 0.00 0.00 0.01 0.02 0.01 0.02 0.02
0.03 0.01 0.01 0.03 0.02 0.01 0.01 0.01 0.01 0.00 0.00 0.00 0.00 0.00 0.00 0.00 0.01 0.02 0.01 0.01 0.01 0.01 0.02 0.01 0.01 0.01 0.02 0.01 0.00 0.01 0.01 0.00 0.03 0.10 0.18 0.01 0.01 0.01 0.02 0.01 0.00 0.02 0.03 0.03 0.02 0.01 0.00 0.01 0.04 0.09 0.08 0.05 0.03 0.02
0.01 0.01 0.01 0.01 0.02 0.01 0.00 0.01 0.00 0.00 0.00 0.00 0.00 0.01 0.02 0.04 0.04 0.03 0.03 0.02 0.00 0.02 0.01 0.01 0.01 0.01 0.00 0.00 0.00 0.00 0.01 0.01 0.06 0.19 0.09 0.00 0.01 0.02 0.03 0.02 0.02 0.03 0.03 0.03 0.02 0.01 0.01 0.02 0.05 0.12 0.16 0.11 0.08 0.06
0.01 0.02 0.02 0.03 0.01 0.00 0.00 0.00 0.00 0.00 0.00 0.00 0.02 0.05 0.07 0.07 0.10 0.07 0.04 0.02 0.01 0.03 0.03 0.01 0.01 0.01 0.00 0.00 0.00 0.00 0.02 0.10 0.08 0.01 0.01 0.01 0.01 0.03 0.02 0.03 0.02 0.02 0.02 0.02 0.02 0.04 0.07 0.08 0.08 0.12 0.16 0.16 0.14 0.08
0.00 0.02 0.04 0.01 0.00 0.00 0.00 0.00 0.00 0.00 0.00 0.03 0.08 0.11 0.12 0.07 0.14 0.11 0.05 0.02 0.03 0.07 0.03 0.01 0.00 0.00 0.00 0.00 0.01 0.01 0.04 0.04 0.01 0.01 0.01 0.01 0.01 0.03 0.06 0.06 0.05 0.04 0.04 0.04 0.04 0.09 0.13 0.13 0.11 0.11 0.11 0.13 0.12 0.10
0.01 0.01 0.00 0.00 0.00 0.00 0.00 0.00 0.00 0.00 0.03 0.11 0.10 0.10 0.05 0.09 0.10 0.04 0.01 0.00 0.05 0.03 0.01 0.01 0.01 0.00 0.01 0.03 0.09 0.01 0.01 0.01 0.01 0.01 0.01 0.02 0.02 0.04 0.06 0.05 0.06 0.05 0.03 0.04 0.04 0.05 0.08 0.08 0.07 0.07 0.07 0.07 0.08 0.08
0.00 0.00 0.00 0.00 0.00 0.00 0.00 0.00 0.00 0.01 0.07 0.06 0.07 0.05 0.04 0.04 0.02 0.01 0.00 0.00 0.00 0.01 0.00 0.00 0.00 0.02 0.03 0.04 0.02 0.00 0.01 0.00 0.01 0.02 0.02 0.02 0.01 0.02 0.03 0.03 0.04 0.04 0.04 0.04 0.03 0.04 0.06 0.06 0.06 0.06 0.05 0.05 0.04 0.03
0.00 0.00 0.00 0.00 0.00 0.00 0.00 0.00 0.00 0.01 0.03 0.02 0.02 0.01 0.01 0.02 0.01 0.01 0.01 0.01 0.00 0.00 0.00 0.01 0.01 0.02 0.02 0.01 0.00 0.00 0.00 0.00 0.00 0.01 0.03 0.04 0.02 0.02 0.02 0.01 0.01 0.02 0.04 0.05 0.06 0.06 0.05 0.05 0.06 0.06 0.06 0.05 0.04 0.04
0.01 0.00 0.00 0.00 0.00 0.00 0.00 0.01 0.00 0.01 0.01 0.01 0.00 0.00 0.00 0.01 0.00 0.01 0.01 0.00 0.00 0.00 0.01 0.01 0.01 0.02 0.01 0.00 0.00 0.00 0.00 0.00 0.00 0.00 0.00 0.01 0.01 0.00 0.01 0.01 0.01 0.01 0.01 0.02 0.03 0.05 0.05 0.04 0.03 0.03 0.04 0.06 0.05 0.05
0.01 0.00 0.00 0.00 0.00 0.00 0.00 0.00 0.00 0.00 0.01 0.01 0.00 0.01 0.01 0.01 0.01 0.01 0.00 0.00 0.01 0.00 0.01 0.00 0.01 0.01 0.00 0.00 0.00 0.00 0.00 0.00 0.00 0.00 0.00 0.00 0.01 0.01 0.01 0.01 0.00 0.01 0.01 0.00 0.00 0.01 0.03 0.04 0.04 0.04 0.04 0.04 0.03 0.03
0.00 0.00 0.00 0.00 0.00 0.00 0.01 0.01 0.01 0.01 0.01 0.01 0.00 0.01 0.01 0.01 0.01 0.00 0.01 0.00 0.00 0.00 0.00 0.00 0.00 0.02 0.01 0.00 0.00 0.00 0.00 0.00 0.00 0.00 0.00 0.00 0.00 0.00 0.00 0.00 0.00 0.00 0.00 0.01 0.00 0.00 0.02 0.01 0.02 0.03 0.03 0.03 0.03 0.03
0.00 0.00 0.00 0.00 0.00 0.00 0.01 0.01 0.00 0.00 0.00 0.01 0.01 0.01 0.01 0.00 0.00 0.00 0.01 0.02 0.01 0.00 0.00 0.00 0.00 0.02 0.02 0.01 0.01 0.00 0.00 0.00 0.00 0.00 0.00 0.00 0.00 0.00 0.00 0.00 0.00 0.00 0.00 0.00 0.00 0.02 0.02 0.01 0.01 0.01 0.02 0.02 0.02 0.02
0.00 0.00 0.00 0.00 0.00 0.00 0.01 0.01 0.00 0.00 0.01 0.01 0.01 0.01 0.00 0.00 0.00 0.00 0.01 0.02 0.00 0.00 0.00 0.00 0.01 0.00 0.01 0.01 0.01 0.00 0.00 0.00 0.00 0.00 0.00 0.00 0.00 0.01 0.02 0.01 0.01 0.00 0.00 0.01 0.03 0.03 0.04 0.02 0.02 0.02 0.02 0.02 0.01 0.02
0.00 0.00 0.00 0.00 0.00 0.01 0.01 0.01 0.01 0.00 0.00 0.01 0.01 0.01 0.00 0.00 0.00 0.01 0.02 0.01 0.00 0.00 0.01 0.01 0.01 0.01 0.01 0.01 0.01 0.00 0.00 0.00 0.00 0.00 0.00 0.00 0.00 0.00 0.01 0.02 0.04 0.05 0.01 0.01 0.01 0.02 0.03 0.02 0.03 0.02 0.03 0.03 0.02 0.02
0.00 0.00 0.00 0.00 0.00 0.01 0.01 0.01 0.01 0.01 0.00 0.00 0.00 0.00 0.01 0.00 0.02 0.01 0.01 0.00 0.00 0.00 0.00 0.00 0.00 0.01 0.02 0.01 0.01 0.01 0.01 0.01 0.00 0.00 0.00 0.00 0.00 0.00 0.01 0.01 0.01 0.00 0.01 0.02 0.01 0.01 0.01 0.02 0.03 0.03 0.04 0.04 0.03 0.02
0.00 0.00 0.01 0.00 0.01 0.02 0.04 0.03 0.01 0.01 0.01 0.00 0.00 0.01 0.00 0.01 0.08 0.03 0.03 0.01 0.00 0.00 0.00 0.00 0.00 0.00 0.00 0.00 0.01 0.02 0.02 0.02 0.01 0.01 0.01 0.03 0.03 0.03 0.01 0.01 0.00 0.00 0.01 0.02 0.02 0.01 0.01 0.01 0.02 0.02 0.02 0.02 0.03 0.02
0.00 0.00 0.00 0.01 0.03 0.03 0.02 0.04 0.07 0.04 0.02 0.02 0.01 0.02 0.02 0.01 0.02 0.01 0.01 0.01 0.01 0.00 0.00 0.01 0.02 0.01 0.02 0.02 0.01 0.01 0.00 0.01 0.01 0.02 0.01 0.02 0.03 0.05 0.03 0.02 0.02 0.01 0.03 0.06 0.07 0.03 0.02 0.02 0.02 0.02 0.02 0.03 0.03 0.03
0.00 0.00 0.00 0.00 0.00 0.02 0.03 0.03 0.05 0.03 0.01 0.02 0.02 0.02 0.01 0.01 0.02 0.01 0.01 0.01 0.01 0.01 0.01 0.00 0.01 0.01 0.01 0.02 0.02 0.02 0.02 0.01 0.02 0.01 0.01 0.00 0.00 0.02 0.05 0.04 0.03 0.03 0.04 0.05 0.09 0.15 0.11 0.09 0.08 0.08 0.07 0.06 0.05 0.03
0.01 0.00 0.00 0.01 0.01 0.02 0.01 0.01 0.01 0.02 0.02 0.02 0.03 0.03 0.03 0.02 0.02 0.02 0.01 0.01 0.01 0.01 0.01 0.01 0.01 0.01 0.01 0.01 0.01 0.01 0.02 0.02 0.01 0.01 0.01 0.00 0.00 0.01 0.03 0.03 0.03 0.02 0.02 0.02 0.02 0.02 0.03 0.04 0.04 0.03 0.03 0.03 0.02 0.01
0.01 0.01 0.01 0.01 0.02 0.01 0.01 0.01 0.01 0.01 0.01 0.01 0.01 0.02 0.02 0.01 0.01 0.01 0.01 0.01 0.02 0.03 0.03 0.02 0.02 0.01 0.01 0.01 0.01 0.01 0.00 0.00 0.01 0.01 0.00 0.00 0.01 0.02 0.03 0.04 0.04 0.02 0.02 0.02 0.02 0.03 0.02 0.01 0.02 0.01 0.01 0.02 0.01 0.01
0.05 0.06 0.06 0.06 0.03 0.02 0.01 0.04 0.04 0.02 0.01 0.01 0.01 0.01 0.02 0.01 0.01 0.03 0.01 0.02 0.03 0.04 0.05 0.06 0.06 0.04 0.03 0.03 0.04 0.03 0.02 0.02 0.02 0.02 0.01 0.01 0.01 0.02 0.03 0.03 0.03 0.02 0.02 0.02 0.03 0.03 0.03 0.02 0.02 0.02 0.02 0.02 0.01 0.01